Wetterdaten: Mittwoch, 13.11.2019
Datum Zeit Temp. Aussen Temp. o. S. Temp +5cm Feuchte Auss Luftdruck Regen Sonnenschein Regendauer Solar Windben Empfang
13.11.2019 00:00 1,7 C 1,1 C 0,6 C 94 % 1000,3 hPa 0,0 l/m 0 min 0 min 0 W/m 12,9 km/h (3 Bft) 100,00 %
13.11.2019 00:02 1,7 C 1,1 C 0,6 C 94 % 1000,3 hPa 0,0 l/m 0 min 0 min 0 W/m 12,9 km/h (3 Bft) 97,50 %
13.11.2019 00:04 1,7 C 1,1 C 0,6 C 94 % 1000,3 hPa 0,0 l/m 0 min 0 min 0 W/m 16,1 km/h (3 Bft) 100,00 %
13.11.2019 00:07 1,7 C 1,1 C 0,6 C 94 % 1000,2 hPa 0,0 l/m 0 min 0 min 0 W/m 12,9 km/h (3 Bft) 98,57 %
13.11.2019 00:08 1,7 C 1,1 C 0,6 C 94 % 1000,2 hPa 0,0 l/m 0 min 0 min 0 W/m 12,9 km/h (3 Bft) 91,30 %
13.11.2019 00:10 1,7 C 1,1 C 0,6 C 94 % 1000,2 hPa 0,0 l/m 0 min 0 min 0 W/m 16,1 km/h (3 Bft) 97,87 %
13.11.2019 00:12 1,7 C 1,1 C 0,6 C 94 % 1000,3 hPa 0,0 l/m 0 min 0 min 0 W/m 16,1 km/h (3 Bft) 100,00 %
13.11.2019 00:14 1,7 C 1,1 C 0,6 C 94 % 1000,2 hPa 0,0 l/m 0 min 0 min 0 W/m 19,3 km/h (3 Bft) 100,00 %
13.11.2019 00:16 1,7 C 1,1 C 0,6 C 94 % 1000,3 hPa 0,0 l/m 0 min 0 min 0 W/m 16,1 km/h (3 Bft) 100,00 %
13.11.2019 00:18 1,7 C 1,1 C 0,6 C 94 % 1000,2 hPa 0,0 l/m 0 min 0 min 0 W/m 16,1 km/h (3 Bft) 100,00 %
13.11.2019 00:20 1,7 C 0,6 C 0,6 C 94 % 1000,2 hPa 0,0 l/m 0 min 0 min 0 W/m 16,1 km/h (3 Bft) 100,00 %
13.11.2019 00:22 1,7 C 0,6 C 0,6 C 94 % 1000,1 hPa 0,0 l/m 0 min 0 min 0 W/m 12,9 km/h (3 Bft) 100,00 %
13.11.2019 00:24 1,6 C 0,6 C 0,6 C 94 % 1000,1 hPa 0,0 l/m 0 min 0 min 0 W/m 16,1 km/h (3 Bft) 97,87 %
13.11.2019 00:26 1,6 C 0,6 C 0,6 C 94 % 1000,1 hPa 0,0 l/m 0 min 0 min 0 W/m 12,9 km/h (3 Bft) 100,00 %
13.11.2019 00:28 1,6 C 0,6 C 0,6 C 94 % 1000,2 hPa 0,0 l/m 0 min 0 min 0 W/m 16,1 km/h (3 Bft) 100,00 %
13.11.2019 00:30 1,6 C 0,6 C 0,6 C 94 % 1000,2 hPa 0,0 l/m 0 min 0 min 0 W/m 12,9 km/h (3 Bft) 100,00 %
13.11.2019 00:32 1,6 C 0,6 C 0,6 C 94 % 1000,1 hPa 0,0 l/m 0 min 0 min 0 W/m 16,1 km/h (3 Bft) 97,87 %
13.11.2019 00:34 1,6 C 0,6 C 0,6 C 94 % 1000,3 hPa 0,0 l/m 0 min 0 min 0 W/m 16,1 km/h (3 Bft) 97,87 %
13.11.2019 00:36 1,6 C 0,6 C 0,6 C 94 % 1000,3 hPa 0,0 l/m 0 min 0 min 0 W/m 16,1 km/h (3 Bft) 97,87 %
13.11.2019 00:38 1,6 C 0,6 C 0,6 C 94 % 1000,4 hPa 0,0 l/m 0 min 0 min 0 W/m 16,1 km/h (3 Bft) 95,92 %
13.11.2019 00:40 1,6 C 0,6 C 0,6 C 95 % 1000,4 hPa 0,0 l/m 0 min 0 min 0 W/m 16,1 km/h (3 Bft) 97,87 %
13.11.2019 00:42 1,6 C 0,6 C 0,6 C 95 % 1000,4 hPa 0,0 l/m 0 min 0 min 0 W/m 12,9 km/h (3 Bft) 97,87 %
13.11.2019 00:44 1,6 C 0,6 C 0,6 C 95 % 1000,4 hPa 0,0 l/m 0 min 0 min 0 W/m 16,1 km/h (3 Bft) 97,83 %
13.11.2019 00:46 1,6 C 0,6 C 0,6 C 94 % 1000,4 hPa 0,0 l/m 0 min 0 min 0 W/m 19,3 km/h (3 Bft) 97,87 %
13.11.2019 00:48 1,6 C 0,6 C 0,6 C 94 % 1000,5 hPa 0,0 l/m 0 min 0 min 0 W/m 12,9 km/h (3 Bft) 97,87 %
13.11.2019 00:50 1,6 C 0,6 C 0,6 C 94 % 1000,5 hPa 0,0 l/m 0 min 0 min 0 W/m 16,1 km/h (3 Bft) 95,74 %
13.11.2019 00:52 1,6 C 1,1 C 0,6 C 95 % 1000,5 hPa 0,0 l/m 0 min 0 min 0 W/m 19,3 km/h (3 Bft) 97,87 %
13.11.2019 00:54 1,6 C 1,1 C 0,6 C 95 % 1000,5 hPa 0,0 l/m 0 min 0 min 0 W/m 16,1 km/h (3 Bft) 95,74 %
13.11.2019 00:56 1,6 C 1,1 C 0,6 C 95 % 1000,5 hPa 0,0 l/m 0 min 0 min 0 W/m 16,1 km/h (3 Bft) 97,83 %
13.11.2019 00:58 1,6 C 1,1 C 0,6 C 95 % 1000,6 hPa 0,0 l/m 0 min 0 min 0 W/m 19,3 km/h (3 Bft) 95,74 %
13.11.2019 01:00 1,6 C 1,1 C 0,6 C 95 % 1000,6 hPa 0,0 l/m 0 min 0 min 0 W/m 16,1 km/h (3 Bft) 97,87 %
13.11.2019 01:02 1,6 C 1,1 C 1,1 C 95 % 1000,6 hPa 0,0 l/m 0 min 0 min 0 W/m 22,5 km/h (4 Bft) 95,74 %
13.11.2019 01:04 1,6 C 1,1 C 1,1 C 95 % 1000,6 hPa 0,0 l/m 0 min 0 min 0 W/m 12,9 km/h (3 Bft) 97,87 %
13.11.2019 01:06 1,6 C 1,7 C 1,1 C 95 % 1000,6 hPa 0,0 l/m 0 min 0 min 0 W/m 16,1 km/h (3 Bft) 97,83 %
13.11.2019 01:08 1,7 C 1,7 C 1,1 C 95 % 1000,6 hPa 0,0 l/m 0 min 0 min 0 W/m 19,3 km/h (3 Bft) 97,87 %
13.11.2019 01:10 1,7 C 1,7 C 1,1 C 95 % 1000,6 hPa 0,0 l/m 0 min 0 min 0 W/m 19,3 km/h (3 Bft) 97,87 %
13.11.2019 01:12 1,7 C 1,7 C 1,1 C 95 % 1000,6 hPa 0,0 l/m 0 min 0 min 0 W/m 19,3 km/h (3 Bft) 97,87 %
13.11.2019 01:14 1,8 C 1,7 C 1,1 C 95 % 1000,7 hPa 0,0 l/m 0 min 0 min 0 W/m 22,5 km/h (4 Bft) 95,74 %
13.11.2019 01:16 1,8 C 1,7 C 1,1 C 95 % 1000,7 hPa 0,0 l/m 0 min 0 min 0 W/m 19,3 km/h (3 Bft) 97,87 %
13.11.2019 01:18 1,8 C 1,7 C 1,1 C 95 % 1000,7 hPa 0,0 l/m 0 min 0 min 0 W/m 19,3 km/h (3 Bft) 100,00 %
13.11.2019 01:20 1,9 C 1,7 C 1,1 C 95 % 1000,6 hPa 0,0 l/m 0 min 0 min 0 W/m 19,3 km/h (3 Bft) 100,00 %
13.11.2019 01:22 1,9 C 1,7 C 1,7 C 95 % 1000,6 hPa 0,0 l/m 0 min 0 min 0 W/m 19,3 km/h (3 Bft) 97,87 %
13.11.2019 01:24 2,0 C 1,7 C 1,7 C 95 % 1000,6 hPa 0,0 l/m 0 min 0 min 0 W/m 25,7 km/h (4 Bft) 97,87 %
13.11.2019 01:26 2,1 C 2,2 C 1,7 C 95 % 1000,6 hPa 0,0 l/m 0 min 0 min 0 W/m 25,7 km/h (4 Bft) 91,49 %
13.11.2019 01:28 2,1 C 2,2 C 1,7 C 95 % 1000,7 hPa 0,0 l/m 0 min 0 min 0 W/m 19,3 km/h (3 Bft) 97,87 %
13.11.2019 01:30 2,1 C 2,2 C 1,7 C 95 % 1000,7 hPa 0,0 l/m 0 min 0 min 0 W/m 29,0 km/h (5 Bft) 95,65 %
13.11.2019 01:32 2,2 C 2,2 C 1,7 C 95 % 1000,6 hPa 0,0 l/m 0 min 0 min 0 W/m 19,3 km/h (3 Bft) 97,87 %
13.11.2019 01:34 2,2 C 2,2 C 1,7 C 95 % 1000,6 hPa 0,0 l/m 0 min 0 min 0 W/m 22,5 km/h (4 Bft) 97,87 %
13.11.2019 01:36 2,2 C 2,2 C 1,7 C 95 % 1000,7 hPa 0,0 l/m 0 min 0 min 0 W/m 19,3 km/h (3 Bft) 97,87 %
13.11.2019 01:38 2,2 C 2,2 C 1,7 C 96 % 1000,7 hPa 0,0 l/m 0 min 0 min 0 W/m 25,7 km/h (4 Bft) 97,87 %
13.11.2019 01:40 2,3 C 2,2 C 1,7 C 95 % 1000,7 hPa 0,0 l/m 0 min 0 min 0 W/m 16,1 km/h (3 Bft) 97,87 %
13.11.2019 01:42 2,3 C 2,2 C 1,7 C 95 % 1000,7 hPa 0,0 l/m 0 min 0 min 0 W/m 16,1 km/h (3 Bft) 95,65 %
13.11.2019 01:44 2,3 C 2,2 C 1,7 C 95 % 1000,7 hPa 0,0 l/m 0 min 0 min 0 W/m 25,7 km/h (4 Bft) 97,87 %
13.11.2019 01:46 2,3 C 2,2 C 1,7 C 95 % 1000,7 hPa 0,0 l/m 0 min 0 min 0 W/m 22,5 km/h (4 Bft) 95,74 %
13.11.2019 01:48 2,4 C 2,2 C 1,7 C 95 % 1000,7 hPa 0,0 l/m 0 min 0 min 0 W/m 19,3 km/h (3 Bft) 95,74 %
13.11.2019 01:50 2,4 C 2,2 C 1,7 C 95 % 1000,6 hPa 0,0 l/m 0 min 0 min 0 W/m 29,0 km/h (5 Bft) 97,87 %
13.11.2019 01:52 2,4 C 2,2 C 1,7 C 95 % 1000,6 hPa 0,0 l/m 0 min 0 min 0 W/m 22,5 km/h (4 Bft) 97,87 %
13.11.2019 01:54 2,4 C 2,2 C 1,7 C 95 % 1000,6 hPa 0,0 l/m 0 min 0 min 0 W/m 19,3 km/h (3 Bft) 97,83 %
13.11.2019 01:56 2,5 C 2,2 C 1,7 C 95 % 1000,6 hPa 0,0 l/m 0 min 0 min 0 W/m 29,0 km/h (5 Bft) 97,87 %
13.11.2019 01:58 2,5 C 2,2 C 1,7 C 95 % 1000,6 hPa 0,0 l/m 0 min 0 min 0 W/m 22,5 km/h (4 Bft) 95,74 %
13.11.2019 02:00 2,6 C 2,2 C 1,7 C 95 % 1000,6 hPa 0,0 l/m 0 min 0 min 0 W/m 25,7 km/h (4 Bft) 93,62 %
13.11.2019 02:02 2,6 C 2,2 C 1,7 C 95 % 1000,6 hPa 0,0 l/m 0 min 0 min 0 W/m 22,5 km/h (4 Bft) 95,74 %
13.11.2019 02:04 2,6 C 2,2 C 1,7 C 95 % 1000,6 hPa 0,0 l/m 0 min 0 min 0 W/m 29,0 km/h (5 Bft) 97,83 %
13.11.2019 02:06 2,6 C 2,8 C 1,7 C 95 % 1000,6 hPa 0,0 l/m 0 min 0 min 0 W/m 22,5 km/h (4 Bft) 97,87 %
13.11.2019 02:08 2,7 C 2,8 C 2,2 C 95 % 1000,6 hPa 0,0 l/m 0 min 0 min 0 W/m 25,7 km/h (4 Bft) 97,87 %
13.11.2019 02:10 2,7 C 2,8 C 2,2 C 95 % 1000,5 hPa 0,0 l/m 0 min 0 min 0 W/m 22,5 km/h (4 Bft) 95,74 %
13.11.2019 02:12 2,7 C 2,8 C 2,2 C 95 % 1000,7 hPa 0,0 l/m 0 min 2 min 0 W/m 22,5 km/h (4 Bft) 97,87 %
13.11.2019 02:14 2,8 C 2,8 C 2,2 C 95 % 1000,6 hPa 0,0 l/m 0 min 0 min 0 W/m 29,0 km/h (5 Bft) 97,87 %
13.11.2019 02:16 2,8 C 2,8 C 2,2 C 95 % 1000,7 hPa 0,0 l/m 0 min 0 min 0 W/m 35,4 km/h (5 Bft) 97,83 %
13.11.2019 02:18 2,8 C 2,8 C 2,2 C 95 % 1000,6 hPa 0,0 l/m 0 min 0 min 0 W/m 25,7 km/h (4 Bft) 95,74 %
13.11.2019 02:20 2,9 C 2,8 C 2,2 C 95 % 1000,7 hPa 0,0 l/m 0 min 0 min 0 W/m 25,7 km/h (4 Bft) 93,62 %
13.11.2019 02:22 2,9 C 2,8 C 2,2 C 94 % 1000,7 hPa 0,0 l/m 0 min 0 min 0 W/m 22,5 km/h (4 Bft) 97,87 %
13.11.2019 02:24 2,9 C 2,8 C 2,2 C 94 % 1000,6 hPa 0,0 l/m 0 min 0 min 0 W/m 19,3 km/h (3 Bft) 97,87 %
13.11.2019 02:26 2,9 C 2,8 C 2,2 C 94 % 1000,7 hPa 0,0 l/m 0 min 0 min 0 W/m 25,7 km/h (4 Bft) 95,74 %
13.11.2019 02:28 3,0 C 2,8 C 2,2 C 94 % 1000,7 hPa 0,0 l/m 0 min 0 min 0 W/m 29,0 km/h (5 Bft) 97,83 %
13.11.2019 02:30 3,0 C 2,8 C 2,2 C 94 % 1000,7 hPa 0,0 l/m 0 min 0 min 0 W/m 19,3 km/h (3 Bft) 97,87 %
13.11.2019 02:32 3,0 C 2,8 C 2,2 C 94 % 1000,7 hPa 0,0 l/m 0 min 0 min 0 W/m 35,4 km/h (5 Bft) 95,74 %
13.11.2019 02:34 3,1 C 2,8 C 2,2 C 94 % 1000,7 hPa 0,0 l/m 0 min 0 min 0 W/m 19,3 km/h (3 Bft) 97,87 %
13.11.2019 02:36 3,1 C 2,8 C 2,2 C 94 % 1000,7 hPa 0,0 l/m 0 min 0 min 0 W/m 25,7 km/h (4 Bft) 95,74 %
13.11.2019 02:38 3,1 C 2,8 C 2,2 C 94 % 1000,7 hPa 0,0 l/m 0 min 0 min 0 W/m 22,5 km/h (4 Bft) 97,87 %
13.11.2019 02:40 3,1 C 2,8 C 2,2 C 94 % 1000,6 hPa 0,0 l/m 0 min 0 min 0 W/m 16,1 km/h (3 Bft) 95,65 %
13.11.2019 02:42 3,1 C 2,8 C 2,2 C 94 % 1000,6 hPa 0,0 l/m 0 min 0 min 0 W/m 22,5 km/h (4 Bft) 97,87 %
13.11.2019 02:44 3,1 C 2,8 C 2,2 C 94 % 1000,7 hPa 0,0 l/m 0 min 0 min 0 W/m 22,5 km/h (4 Bft) 97,87 %
13.11.2019 02:46 3,2 C 2,8 C 2,2 C 94 % 1000,7 hPa 0,0 l/m 0 min 0 min 0 W/m 22,5 km/h (4 Bft) 97,87 %
13.11.2019 02:48 3,2 C 2,8 C 2,2 C 94 % 1000,7 hPa 0,0 l/m 0 min 0 min 0 W/m 16,1 km/h (3 Bft) 95,74 %
13.11.2019 02:50 3,2 C 2,8 C 2,2 C 94 % 1000,7 hPa 0,0 l/m 0 min 0 min 0 W/m 16,1 km/h (3 Bft) 97,87 %
13.11.2019 02:52 3,2 C 2,8 C 2,2 C 94 % 1000,7 hPa 0,0 l/m 0 min 0 min 0 W/m 19,3 km/h (3 Bft) 97,83 %
13.11.2019 02:54 3,2 C 2,8 C 2,2 C 93 % 1000,7 hPa 0,0 l/m 0 min 0 min 0 W/m 16,1 km/h (3 Bft) 95,74 %
13.11.2019 02:56 3,2 C 2,8 C 2,2 C 93 % 1000,7 hPa 0,0 l/m 0 min 0 min 0 W/m 22,5 km/h (4 Bft) 97,87 %
13.11.2019 02:58 3,2 C 2,8 C 2,2 C 93 % 1000,7 hPa 0,0 l/m 0 min 0 min 0 W/m 19,3 km/h (3 Bft) 95,74 %
13.11.2019 03:00 3,3 C 2,8 C 2,2 C 93 % 1000,7 hPa 0,0 l/m 0 min 0 min 0 W/m 12,9 km/h (3 Bft) 97,87 %
13.11.2019 03:02 3,3 C 2,8 C 2,2 C 93 % 1000,6 hPa 0,0 l/m 0 min 0 min 0 W/m 12,9 km/h (3 Bft) 95,65 %
13.11.2019 03:04 3,3 C 2,8 C 2,2 C 93 % 1000,6 hPa 0,0 l/m 0 min 0 min 0 W/m 19,3 km/h (3 Bft) 97,87 %
13.11.2019 03:06 3,3 C 2,8 C 2,2 C 93 % 1000,6 hPa 0,0 l/m 0 min 0 min 0 W/m 19,3 km/h (3 Bft) 100,00 %
13.11.2019 03:08 3,3 C 2,8 C 2,2 C 93 % 1000,5 hPa 0,0 l/m 0 min 0 min 0 W/m 16,1 km/h (3 Bft) 95,74 %
13.11.2019 03:10 3,3 C 2,8 C 2,2 C 93 % 1000,5 hPa 0,0 l/m 0 min 0 min 0 W/m 12,9 km/h (3 Bft) 97,87 %
13.11.2019 03:12 3,3 C 2,8 C 2,2 C 93 % 1000,5 hPa 0,0 l/m 0 min 0 min 0 W/m 22,5 km/h (4 Bft) 95,74 %
13.11.2019 03:14 3,3 C 2,8 C 2,2 C 93 % 1000,5 hPa 0,0 l/m 0 min 0 min 0 W/m 19,3 km/h (3 Bft) 97,83 %
13.11.2019 03:16 3,3 C 2,8 C 2,2 C 93 % 1000,5 hPa 0,0 l/m 0 min 0 min 0 W/m 19,3 km/h (3 Bft) 93,62 %
13.11.2019 03:18 3,3 C 2,8 C 2,2 C 93 % 1000,5 hPa 0,0 l/m 0 min 0 min 0 W/m 12,9 km/h (3 Bft) 97,87 %
13.11.2019 03:20 3,4 C 2,8 C 2,2 C 93 % 1000,4 hPa 0,0 l/m 0 min 0 min 0 W/m 12,9 km/h (3 Bft) 95,74 %
13.11.2019 03:22 3,4 C 2,8 C 2,2 C 93 % 1000,4 hPa 0,0 l/m 0 min 0 min 0 W/m 19,3 km/h (3 Bft) 95,74 %
13.11.2019 03:24 3,4 C 2,8 C 2,2 C 93 % 1000,4 hPa 0,0 l/m 0 min 0 min 0 W/m 16,1 km/h (3 Bft) 97,87 %
13.11.2019 03:26 3,4 C 2,8 C 2,2 C 93 % 1000,3 hPa 0,0 l/m 0 min 0 min 0 W/m 16,1 km/h (3 Bft) 97,83 %
13.11.2019 03:28 3,4 C 2,8 C 2,8 C 93 % 1000,3 hPa 0,0 l/m 0 min 0 min 0 W/m 12,9 km/h (3 Bft) 97,87 %
13.11.2019 03:30 3,4 C 3,3 C 2,8 C 93 % 1000,3 hPa 0,0 l/m 0 min 0 min 0 W/m 22,5 km/h (4 Bft) 97,87 %
13.11.2019 03:32 3,5 C 3,3 C 2,8 C 93 % 1000,3 hPa 0,0 l/m 0 min 0 min 0 W/m 19,3 km/h (3 Bft) 97,87 %
13.11.2019 03:34 3,5 C 3,3 C 2,8 C 93 % 1000,3 hPa 0,0 l/m 0 min 0 min 0 W/m 19,3 km/h (3 Bft) 97,87 %
13.11.2019 03:36 3,5 C 3,3 C 2,8 C 93 % 1000,3 hPa 0,0 l/m 0 min 0 min 0 W/m 22,5 km/h (4 Bft) 97,87 %
13.11.2019 03:38 3,6 C 3,3 C 2,8 C 93 % 1000,2 hPa 0,0 l/m 0 min 0 min 0 W/m 16,1 km/h (3 Bft) 97,83 %
13.11.2019 03:40 3,6 C 3,3 C 2,8 C 93 % 1000,2 hPa 0,0 l/m 0 min 0 min 0 W/m 16,1 km/h (3 Bft) 100,00 %
13.11.2019 03:42 3,6 C 3,3 C 2,8 C 93 % 1000,1 hPa 0,0 l/m 0 min 0 min 0 W/m 16,1 km/h (3 Bft) 97,87 %
13.11.2019 03:44 3,6 C 3,3 C 2,8 C 93 % 1000,1 hPa 0,0 l/m 0 min 0 min 0 W/m 16,1 km/h (3 Bft) 97,87 %
13.11.2019 03:46 3,6 C 3,3 C 2,8 C 93 % 1000,1 hPa 0,0 l/m 0 min 2 min 0 W/m 19,3 km/h (3 Bft) 95,74 %
13.11.2019 03:48 3,6 C 3,3 C 2,8 C 93 % 1000,0 hPa 0,0 l/m 0 min 0 min 0 W/m 19,3 km/h (3 Bft) 93,48 %
13.11.2019 03:50 3,6 C 3,3 C 2,8 C 93 % 1000,0 hPa 0,0 l/m 0 min 0 min 0 W/m 16,1 km/h (3 Bft) 97,87 %
13.11.2019 03:52 3,6 C 2,8 C 2,2 C 93 % 999,9 hPa 0,0 l/m 0 min 2 min 0 W/m 16,1 km/h (3 Bft) 93,62 %
13.11.2019 03:54 3,7 C 2,8 C 2,2 C 93 % 999,8 hPa 0,0 l/m 0 min 0 min 0 W/m 22,5 km/h (4 Bft) 95,74 %
13.11.2019 03:56 3,7 C 2,8 C 2,2 C 93 % 999,8 hPa 0,0 l/m 0 min 0 min 0 W/m 16,1 km/h (3 Bft) 93,62 %
13.11.2019 03:58 3,7 C 2,8 C 2,2 C 93 % 999,8 hPa 0,0 l/m 0 min 0 min 0 W/m 3,2 km/h (1 Bft) 76,60 %
13.11.2019 04:00 3,7 C 2,8 C 2,2 C 93 % 999,7 hPa 0,0 l/m 0 min 0 min 0 W/m 16,1 km/h (3 Bft) 77,78 %
13.11.2019 04:02 3,7 C 2,8 C 2,2 C 93 % 999,7 hPa 0,0 l/m 0 min 0 min 0 W/m 16,1 km/h (3 Bft) 100,00 %
13.11.2019 04:04 3,7 C 3,3 C 2,2 C 93 % 999,6 hPa 0,0 l/m 0 min 0 min 0 W/m 16,1 km/h (3 Bft) 93,62 %
13.11.2019 04:06 3,7 C 2,8 C 2,2 C 93 % 999,5 hPa 0,0 l/m 0 min 0 min 0 W/m 16,1 km/h (3 Bft) 97,87 %
13.11.2019 04:08 3,7 C 3,3 C 2,2 C 92 % 999,5 hPa 0,0 l/m 0 min 0 min 0 W/m 16,1 km/h (3 Bft) 97,87 %
13.11.2019 04:10 3,7 C 2,8 C 2,2 C 92 % 999,4 hPa 0,0 l/m 0 min 0 min 0 W/m 16,1 km/h (3 Bft) 97,87 %
13.11.2019 04:12 3,7 C 2,8 C 2,2 C 92 % 999,5 hPa 0,0 l/m 0 min 0 min 0 W/m 16,1 km/h (3 Bft) 97,83 %
13.11.2019 04:14 3,7 C 2,8 C 2,2 C 92 % 999,4 hPa 0,0 l/m 0 min 2 min 0 W/m 16,1 km/h (3 Bft) 97,87 %
13.11.2019 04:16 3,7 C 2,8 C 2,2 C 92 % 999,5 hPa 0,0 l/m 0 min 0 min 0 W/m 16,1 km/h (3 Bft) 95,74 %
13.11.2019 04:18 3,7 C 2,8 C 2,2 C 92 % 999,4 hPa 0,0 l/m 0 min 0 min 0 W/m 22,5 km/h (4 Bft) 93,62 %
13.11.2019 04:20 3,7 C 2,8 C 2,2 C 92 % 999,4 hPa 0,0 l/m 0 min 0 min 0 W/m 16,1 km/h (3 Bft) 97,87 %
13.11.2019 04:22 3,7 C 2,8 C 2,2 C 92 % 999,4 hPa 0,0 l/m 0 min 0 min 0 W/m 16,1 km/h (3 Bft) 97,87 %
13.11.2019 04:24 3,7 C 2,8 C 2,2 C 92 % 999,4 hPa 0,0 l/m 0 min 0 min 0 W/m 16,1 km/h (3 Bft) 97,83 %
13.11.2019 04:26 3,7 C 2,8 C 2,2 C 92 % 999,4 hPa 0,0 l/m 0 min 0 min 0 W/m 12,9 km/h (3 Bft) 97,87 %
13.11.2019 04:28 3,7 C 2,8 C 2,2 C 92 % 999,4 hPa 0,0 l/m 0 min 0 min 0 W/m 12,9 km/h (3 Bft) 97,87 %
13.11.2019 04:30 3,7 C 2,8 C 2,2 C 92 % 999,4 hPa 0,0 l/m 0 min 0 min 0 W/m 16,1 km/h (3 Bft) 97,87 %
13.11.2019 04:32 3,7 C 2,8 C 2,2 C 92 % 999,4 hPa 0,0 l/m 0 min 0 min 0 W/m 12,9 km/h (3 Bft) 97,87 %
13.11.2019 04:34 3,6 C 2,8 C 2,2 C 92 % 999,5 hPa 0,0 l/m 0 min 0 min 0 W/m 16,1 km/h (3 Bft) 97,87 %
13.11.2019 04:36 3,6 C 2,8 C 2,2 C 92 % 999,5 hPa 0,0 l/m 0 min 0 min 0 W/m 16,1 km/h (3 Bft) 97,83 %
13.11.2019 04:38 3,6 C 2,8 C 2,2 C 92 % 999,5 hPa 0,0 l/m 0 min 0 min 0 W/m 12,9 km/h (3 Bft) 100,00 %
13.11.2019 04:40 3,6 C 2,8 C 2,2 C 92 % 999,6 hPa 0,0 l/m 0 min 0 min 0 W/m 12,9 km/h (3 Bft) 100,00 %
13.11.2019 04:42 3,6 C 2,8 C 2,2 C 92 % 999,5 hPa 0,0 l/m 0 min 0 min 0 W/m 16,1 km/h (3 Bft) 97,87 %
13.11.2019 04:44 3,6 C 2,8 C 2,2 C 92 % 999,5 hPa 0,0 l/m 0 min 0 min 0 W/m 12,9 km/h (3 Bft) 100,00 %
13.11.2019 04:46 3,6 C 2,8 C 2,2 C 92 % 999,4 hPa 0,0 l/m 0 min 0 min 0 W/m 12,9 km/h (3 Bft) 100,00 %
13.11.2019 04:48 3,6 C 2,8 C 2,2 C 92 % 999,4 hPa 0,0 l/m 0 min 0 min 0 W/m 12,9 km/h (3 Bft) 100,00 %
13.11.2019 04:50 3,6 C 2,8 C 2,2 C 92 % 999,4 hPa 0,0 l/m 0 min 0 min 0 W/m 12,9 km/h (3 Bft) 97,87 %
13.11.2019 04:52 3,6 C 3,3 C 2,8 C 92 % 999,5 hPa 0,0 l/m 0 min 0 min 0 W/m 6,4 km/h (2 Bft) 97,87 %
13.11.2019 04:54 3,6 C 3,3 C 2,8 C 92 % 999,5 hPa 0,0 l/m 0 min 0 min 0 W/m 12,9 km/h (3 Bft) 100,00 %
13.11.2019 04:56 3,6 C 3,3 C 2,8 C 92 % 999,5 hPa 0,0 l/m 0 min 0 min 0 W/m 16,1 km/h (3 Bft) 100,00 %
13.11.2019 04:58 3,6 C 3,3 C 2,8 C 92 % 999,5 hPa 0,0 l/m 0 min 0 min 0 W/m 12,9 km/h (3 Bft) 100,00 %
13.11.2019 05:00 3,6 C 3,3 C 2,8 C 92 % 999,5 hPa 0,0 l/m 0 min 0 min 0 W/m 12,9 km/h (3 Bft) 95,74 %
13.11.2019 05:02 3,6 C 3,3 C 2,8 C 93 % 999,5 hPa 0,0 l/m 0 min 0 min 0 W/m 16,1 km/h (3 Bft) 60,87 %
13.11.2019 05:04 3,6 C 3,3 C 2,8 C 93 % 999,6 hPa 0,0 l/m 0 min 0 min 0 W/m 12,9 km/h (3 Bft) 100,00 %
13.11.2019 05:06 3,7 C 3,3 C 2,8 C 93 % 999,5 hPa 0,0 l/m 0 min 0 min 0 W/m 12,9 km/h (3 Bft) 97,87 %
13.11.2019 05:08 3,7 C 3,3 C 2,8 C 93 % 999,6 hPa 0,0 l/m 0 min 0 min 0 W/m 19,3 km/h (3 Bft) 100,00 %
13.11.2019 05:10 3,7 C 3,3 C 2,8 C 93 % 999,5 hPa 0,0 l/m 0 min 0 min 0 W/m 12,9 km/h (3 Bft) 97,83 %
13.11.2019 05:12 3,7 C 3,3 C 2,8 C 93 % 999,6 hPa 0,0 l/m 0 min 0 min 0 W/m 16,1 km/h (3 Bft) 100,00 %
13.11.2019 05:14 3,7 C 3,3 C 2,8 C 93 % 999,6 hPa 0,0 l/m 0 min 0 min 0 W/m 16,1 km/h (3 Bft) 100,00 %
13.11.2019 05:16 3,8 C 3,9 C 2,8 C 93 % 999,6 hPa 0,0 l/m 0 min 0 min 0 W/m 16,1 km/h (3 Bft) 97,87 %
13.11.2019 05:18 3,8 C 3,9 C 2,8 C 93 % 999,6 hPa 0,0 l/m 0 min 0 min 0 W/m 19,3 km/h (3 Bft) 100,00 %
13.11.2019 05:20 3,8 C 3,9 C 3,3 C 93 % 999,7 hPa 0,0 l/m 0 min 0 min 0 W/m 16,1 km/h (3 Bft) 97,87 %
13.11.2019 05:22 3,8 C 3,9 C 3,3 C 93 % 999,6 hPa 0,0 l/m 0 min 0 min 0 W/m 16,1 km/h (3 Bft) 97,83 %
13.11.2019 05:24 3,9 C 3,9 C 3,3 C 93 % 999,6 hPa 0,0 l/m 0 min 0 min 0 W/m 22,5 km/h (4 Bft) 97,87 %
13.11.2019 05:26 3,9 C 3,9 C 3,3 C 93 % 999,6 hPa 0,0 l/m 0 min 0 min 0 W/m 12,9 km/h (3 Bft) 97,87 %
13.11.2019 05:28 3,9 C 3,9 C 3,3 C 93 % 999,7 hPa 0,0 l/m 0 min 0 min 0 W/m 22,5 km/h (4 Bft) 97,87 %
13.11.2019 05:30 4,0 C 3,9 C 3,3 C 93 % 999,6 hPa 0,0 l/m 0 min 0 min 0 W/m 16,1 km/h (3 Bft) 97,87 %
13.11.2019 05:32 4,0 C 3,9 C 3,3 C 93 % 999,7 hPa 0,0 l/m 0 min 0 min 0 W/m 19,3 km/h (3 Bft) 97,87 %
13.11.2019 05:34 4,0 C 3,3 C 2,8 C 93 % 999,7 hPa 0,0 l/m 0 min 0 min 0 W/m 16,1 km/h (3 Bft) 95,65 %
13.11.2019 05:36 4,1 C 3,9 C 3,3 C 93 % 999,8 hPa 0,0 l/m 0 min 0 min 0 W/m 19,3 km/h (3 Bft) 95,74 %
13.11.2019 05:38 4,1 C 3,9 C 3,3 C 93 % 999,8 hPa 0,0 l/m 0 min 0 min 0 W/m 6,4 km/h (2 Bft) 97,87 %
13.11.2019 05:40 4,1 C 3,9 C 3,3 C 93 % 999,8 hPa 0,0 l/m 0 min 0 min 0 W/m 16,1 km/h (3 Bft) 95,74 %
13.11.2019 05:42 4,1 C 3,9 C 3,3 C 93 % 999,8 hPa 0,0 l/m 0 min 0 min 0 W/m 16,1 km/h (3 Bft) 97,87 %
13.11.2019 05:44 4,1 C 3,9 C 3,3 C 93 % 999,8 hPa 0,0 l/m 0 min 0 min 0 W/m 12,9 km/h (3 Bft) 95,65 %
13.11.2019 05:46 4,1 C 3,9 C 3,3 C 93 % 999,8 hPa 0,0 l/m 0 min 0 min 0 W/m 16,1 km/h (3 Bft) 95,74 %
13.11.2019 05:48 4,1 C 3,9 C 3,3 C 93 % 999,9 hPa 0,0 l/m 0 min 0 min 0 W/m 16,1 km/h (3 Bft) 93,62 %
13.11.2019 05:50 4,1 C 3,9 C 3,3 C 93 % 999,9 hPa 0,0 l/m 0 min 0 min 0 W/m 6,4 km/h (2 Bft) 93,62 %
13.11.2019 05:52 4,2 C 3,9 C 3,3 C 93 % 999,9 hPa 0,0 l/m 0 min 0 min 0 W/m 12,9 km/h (3 Bft) 95,74 %
13.11.2019 05:54 4,2 C 3,9 C 3,3 C 93 % 999,8 hPa 0,0 l/m 0 min 0 min 0 W/m 19,3 km/h (3 Bft) 95,74 %
13.11.2019 05:56 4,2 C 3,9 C 3,3 C 93 % 999,8 hPa 0,0 l/m 0 min 0 min 0 W/m 16,1 km/h (3 Bft) 95,65 %
13.11.2019 05:58 4,2 C 3,9 C 3,3 C 93 % 999,8 hPa 0,0 l/m 0 min 0 min 0 W/m 16,1 km/h (3 Bft) 95,74 %
13.11.2019 06:00 4,2 C 3,9 C 3,3 C 93 % 999,9 hPa 0,0 l/m 0 min 0 min 0 W/m 19,3 km/h (3 Bft) 95,74 %
13.11.2019 06:02 4,2 C 3,9 C 3,3 C 93 % 999,8 hPa 0,0 l/m 0 min 0 min 0 W/m 12,9 km/h (3 Bft) 91,49 %
13.11.2019 06:04 4,2 C 3,9 C 3,3 C 93 % 999,8 hPa 0,0 l/m 0 min 0 min 0 W/m 19,3 km/h (3 Bft) 95,74 %
13.11.2019 06:08 4,2 C 3,9 C 3,3 C 93 % 999,8 hPa 0,0 l/m 0 min 0 min 0 W/m 16,1 km/h (3 Bft) 95,70 %
13.11.2019 06:10 4,2 C 3,9 C 3,3 C 93 % 999,8 hPa 0,0 l/m 0 min 0 min 0 W/m 22,5 km/h (4 Bft) 95,74 %
13.11.2019 06:12 4,3 C 3,9 C 3,3 C 93 % 999,8 hPa 0,0 l/m 0 min 0 min 0 W/m 12,9 km/h (3 Bft) 95,74 %
13.11.2019 06:14 4,3 C 3,9 C 3,3 C 93 % 999,8 hPa 0,0 l/m 0 min 0 min 0 W/m 16,1 km/h (3 Bft) 95,74 %
13.11.2019 06:16 4,3 C 3,9 C 3,3 C 93 % 999,8 hPa 0,0 l/m 0 min 0 min 0 W/m 16,1 km/h (3 Bft) 93,62 %
13.11.2019 06:18 4,3 C 3,9 C 3,3 C 93 % 999,8 hPa 0,0 l/m 0 min 0 min 0 W/m 12,9 km/h (3 Bft) 95,74 %
13.11.2019 06:20 4,3 C 3,9 C 3,3 C 93 % 999,9 hPa 0,0 l/m 0 min 0 min 0 W/m 16,1 km/h (3 Bft) 97,83 %
13.11.2019 06:22 4,3 C 3,9 C 3,3 C 93 % 999,9 hPa 0,0 l/m 0 min 0 min 0 W/m 16,1 km/h (3 Bft) 97,87 %
13.11.2019 06:24 4,3 C 3,9 C 3,3 C 93 % 999,9 hPa 0,0 l/m 0 min 0 min 0 W/m 19,3 km/h (3 Bft) 97,87 %
13.11.2019 06:26 4,3 C 3,9 C 3,3 C 93 % 999,9 hPa 0,0 l/m 0 min 0 min 0 W/m 12,9 km/h (3 Bft) 97,87 %
13.11.2019 06:28 4,3 C 3,9 C 3,3 C 93 % 999,9 hPa 0,0 l/m 0 min 0 min 0 W/m 16,1 km/h (3 Bft) 95,74 %
13.11.2019 06:30 4,3 C 3,9 C 3,3 C 93 % 1000,0 hPa 0,0 l/m 0 min 0 min 0 W/m 12,9 km/h (3 Bft) 95,74 %
13.11.2019 06:32 4,3 C 3,9 C 3,3 C 93 % 1000,0 hPa 0,0 l/m 0 min 0 min 0 W/m 19,3 km/h (3 Bft) 93,48 %
13.11.2019 06:34 4,3 C 3,9 C 3,3 C 93 % 1000,0 hPa 0,0 l/m 0 min 0 min 0 W/m 12,9 km/h (3 Bft) 93,62 %
13.11.2019 06:36 4,3 C 3,9 C 3,3 C 93 % 1000,0 hPa 0,0 l/m 0 min 0 min 0 W/m 12,9 km/h (3 Bft) 97,87 %
13.11.2019 06:38 4,3 C 3,9 C 3,3 C 93 % 1000,0 hPa 0,0 l/m 0 min 0 min 0 W/m 12,9 km/h (3 Bft) 93,62 %
13.11.2019 06:40 4,3 C 3,9 C 3,3 C 93 % 999,9 hPa 0,0 l/m 0 min 0 min 0 W/m 12,9 km/h (3 Bft) 97,87 %
13.11.2019 06:42 4,3 C 3,9 C 3,3 C 93 % 1000,0 hPa 0,0 l/m 0 min 0 min 0 W/m 12,9 km/h (3 Bft) 100,00 %
13.11.2019 06:44 4,4 C 3,9 C 3,3 C 93 % 1000,0 hPa 0,0 l/m 0 min 0 min 0 W/m 6,4 km/h (2 Bft) 97,87 %
13.11.2019 06:46 4,3 C 3,9 C 3,3 C 93 % 1000,1 hPa 0,0 l/m 0 min 0 min 0 W/m 16,1 km/h (3 Bft) 97,87 %
13.11.2019 06:48 4,4 C 3,9 C 3,3 C 93 % 1000,1 hPa 0,0 l/m 0 min 0 min 0 W/m 16,1 km/h (3 Bft) 95,74 %
13.11.2019 06:50 4,4 C 3,9 C 3,3 C 93 % 1000,1 hPa 0,0 l/m 0 min 0 min 0 W/m 16,1 km/h (3 Bft) 95,74 %
13.11.2019 06:52 4,4 C 3,9 C 3,3 C 93 % 1000,1 hPa 0,0 l/m 0 min 0 min 0 W/m 12,9 km/h (3 Bft) 93,62 %
13.11.2019 06:54 4,4 C 3,9 C 3,3 C 93 % 1000,1 hPa 0,0 l/m 0 min 0 min 0 W/m 6,4 km/h (2 Bft) 95,65 %
13.11.2019 06:56 4,4 C 3,9 C 3,3 C 93 % 1000,1 hPa 0,0 l/m 0 min 0 min 0 W/m 12,9 km/h (3 Bft) 95,74 %
13.11.2019 06:58 4,4 C 3,9 C 3,3 C 93 % 1000,2 hPa 0,0 l/m 0 min 0 min 0 W/m 16,1 km/h (3 Bft) 95,74 %
13.11.2019 07:00 4,4 C 3,9 C 3,3 C 93 % 1000,2 hPa 0,0 l/m 0 min 0 min 0 W/m 19,3 km/h (3 Bft) 97,87 %
13.11.2019 07:02 4,5 C 3,9 C 3,3 C 93 % 1000,2 hPa 0,0 l/m 0 min 0 min 0 W/m 16,1 km/h (3 Bft) 95,74 %
13.11.2019 07:04 4,5 C 3,9 C 3,3 C 93 % 1000,3 hPa 0,0 l/m 0 min 0 min 0 W/m 16,1 km/h (3 Bft) 97,87 %
13.11.2019 07:06 4,5 C 3,9 C 3,3 C 94 % 1000,3 hPa 0,0 l/m 0 min 0 min 0 W/m 12,9 km/h (3 Bft) 97,83 %
13.11.2019 07:08 4,5 C 4,4 C 3,3 C 94 % 1000,3 hPa 0,0 l/m 0 min 0 min 0 W/m 19,3 km/h (3 Bft) 97,87 %
13.11.2019 07:10 4,6 C 4,4 C 3,3 C 94 % 1000,2 hPa 0,0 l/m 0 min 0 min 0 W/m 16,1 km/h (3 Bft) 100,00 %
13.11.2019 07:12 4,6 C 4,4 C 3,9 C 94 % 1000,3 hPa 0,0 l/m 0 min 0 min 0 W/m 16,1 km/h (3 Bft) 100,00 %
13.11.2019 07:14 4,6 C 4,4 C 3,9 C 94 % 1000,3 hPa 0,0 l/m 0 min 0 min 0 W/m 16,1 km/h (3 Bft) 97,87 %
13.11.2019 07:16 4,6 C 4,4 C 3,9 C 94 % 1000,3 hPa 0,0 l/m 0 min 0 min 0 W/m 16,1 km/h (3 Bft) 97,87 %
13.11.2019 07:18 4,6 C 4,4 C 3,9 C 94 % 1000,3 hPa 0,0 l/m 0 min 0 min 0 W/m 22,5 km/h (4 Bft) 100,00 %
13.11.2019 07:20 4,6 C 4,4 C 3,9 C 94 % 1000,3 hPa 0,0 l/m 0 min 0 min 0 W/m 12,9 km/h (3 Bft) 97,87 %
13.11.2019 07:22 4,6 C 4,4 C 3,9 C 94 % 1000,4 hPa 0,0 l/m 0 min 0 min 0 W/m 16,1 km/h (3 Bft) 100,00 %
13.11.2019 07:24 4,6 C 4,4 C 3,9 C 94 % 1000,4 hPa 0,0 l/m 0 min 0 min 0 W/m 16,1 km/h (3 Bft) 97,87 %
13.11.2019 07:26 4,7 C 4,4 C 3,9 C 94 % 1000,5 hPa 0,0 l/m 0 min 0 min 0 W/m 12,9 km/h (3 Bft) 100,00 %
13.11.2019 07:28 4,6 C 4,4 C 3,9 C 94 % 1000,6 hPa 0,0 l/m 0 min 0 min 0 W/m 12,9 km/h (3 Bft) 100,00 %
13.11.2019 07:30 4,7 C 4,4 C 3,9 C 94 % 1000,6 hPa 0,0 l/m 0 min 0 min 0 W/m 6,4 km/h (2 Bft) 97,83 %
13.11.2019 07:32 4,7 C 4,4 C 3,9 C 93 % 1000,6 hPa 0,0 l/m 0 min 0 min 0 W/m 16,1 km/h (3 Bft) 100,00 %
13.11.2019 07:34 4,7 C 4,4 C 3,9 C 93 % 1000,6 hPa 0,0 l/m 0 min 0 min 0 W/m 6,4 km/h (2 Bft) 100,00 %
13.11.2019 07:36 4,7 C 4,4 C 3,9 C 93 % 1000,6 hPa 0,0 l/m 0 min 0 min 0 W/m 6,4 km/h (2 Bft) 100,00 %
13.11.2019 07:38 4,7 C 4,4 C 3,9 C 93 % 1000,7 hPa 0,0 l/m 0 min 0 min 0 W/m 16,1 km/h (3 Bft) 100,00 %
13.11.2019 07:40 4,7 C 4,4 C 3,9 C 93 % 1000,6 hPa 0,0 l/m 0 min 0 min 0 W/m 12,9 km/h (3 Bft) 100,00 %
13.11.2019 07:42 4,7 C 4,4 C 3,9 C 93 % 1000,6 hPa 0,0 l/m 0 min 0 min 0 W/m 12,9 km/h (3 Bft) 100,00 %
13.11.2019 07:44 4,7 C 4,4 C 3,9 C 93 % 1000,7 hPa 0,0 l/m 0 min 0 min 0 W/m 12,9 km/h (3 Bft) 100,00 %
13.11.2019 07:46 4,7 C 4,4 C 3,9 C 93 % 1000,7 hPa 0,0 l/m 0 min 0 min 0 W/m 12,9 km/h (3 Bft) 97,87 %
13.11.2019 07:48 4,7 C 4,4 C 3,9 C 93 % 1000,7 hPa 0,0 l/m 0 min 0 min 0 W/m 6,4 km/h (2 Bft) 100,00 %
13.11.2019 07:50 4,8 C 4,4 C 3,9 C 93 % 1000,7 hPa 0,0 l/m 0 min 0 min 0 W/m 6,4 km/h (2 Bft) 97,87 %
13.11.2019 07:52 4,8 C 4,4 C 3,9 C 93 % 1000,7 hPa 0,0 l/m 0 min 0 min 0 W/m 6,4 km/h (2 Bft) 100,00 %
13.11.2019 07:54 4,8 C 4,4 C 3,9 C 93 % 1000,7 hPa 0,0 l/m 0 min 0 min 0 W/m 6,4 km/h (2 Bft) 100,00 %
13.11.2019 07:56 4,8 C 4,4 C 3,9 C 93 % 1000,6 hPa 0,0 l/m 0 min 0 min 2 W/m 12,9 km/h (3 Bft) 100,00 %
13.11.2019 07:58 4,8 C 4,4 C 3,9 C 93 % 1000,6 hPa 0,0 l/m 0 min 0 min 5 W/m 12,9 km/h (3 Bft) 97,87 %
13.11.2019 08:00 4,8 C 4,4 C 3,9 C 93 % 1000,6 hPa 0,0 l/m 0 min 0 min 5 W/m 16,1 km/h (3 Bft) 100,00 %
13.11.2019 08:02 4,8 C 4,4 C 3,9 C 93 % 1000,6 hPa 0,0 l/m 0 min 0 min 5 W/m 16,1 km/h (3 Bft) 97,87 %
13.11.2019 08:04 4,8 C 4,4 C 3,9 C 93 % 1000,7 hPa 0,0 l/m 0 min 0 min 5 W/m 16,1 km/h (3 Bft) 100,00 %
13.11.2019 08:06 4,8 C 4,4 C 3,9 C 93 % 1000,7 hPa 0,0 l/m 0 min 0 min 7 W/m 16,1 km/h (3 Bft) 100,00 %
13.11.2019 08:08 4,8 C 4,4 C 3,9 C 93 % 1000,7 hPa 0,0 l/m 0 min 0 min 9 W/m 6,4 km/h (2 Bft) 97,87 %
13.11.2019 08:10 4,8 C 4,4 C 3,9 C 93 % 1000,7 hPa 0,0 l/m 0 min 0 min 7 W/m 12,9 km/h (3 Bft) 100,00 %
13.11.2019 08:12 4,8 C 4,4 C 3,9 C 93 % 1000,7 hPa 0,0 l/m 0 min 0 min 5 W/m 6,4 km/h (2 Bft) 100,00 %
13.11.2019 08:14 4,8 C 4,4 C 3,9 C 93 % 1000,7 hPa 0,0 l/m 0 min 0 min 2 W/m 19,3 km/h (3 Bft) 100,00 %
13.11.2019 08:16 4,8 C 4,4 C 3,9 C 93 % 1000,7 hPa 0,0 l/m 0 min 0 min 0 W/m 19,3 km/h (3 Bft) 95,65 %
13.11.2019 08:18 4,8 C 4,4 C 3,9 C 94 % 1000,7 hPa 0,0 l/m 0 min 0 min 2 W/m 12,9 km/h (3 Bft) 100,00 %
13.11.2019 08:20 4,9 C 4,4 C 3,9 C 94 % 1000,7 hPa 0,0 l/m 0 min 0 min 6 W/m 12,9 km/h (3 Bft) 97,87 %
13.11.2019 08:22 4,9 C 4,4 C 3,9 C 94 % 1000,7 hPa 0,0 l/m 0 min 0 min 9 W/m 19,3 km/h (3 Bft) 97,87 %
13.11.2019 08:24 4,9 C 4,4 C 3,9 C 94 % 1000,7 hPa 0,0 l/m 0 min 0 min 7 W/m 19,3 km/h (3 Bft) 95,74 %
13.11.2019 08:26 4,9 C 4,4 C 3,9 C 94 % 1000,7 hPa 0,0 l/m 0 min 0 min 9 W/m 12,9 km/h (3 Bft) 100,00 %
13.11.2019 08:28 4,9 C 4,4 C 3,9 C 94 % 1000,7 hPa 0,0 l/m 0 min 0 min 9 W/m 12,9 km/h (3 Bft) 100,00 %
13.11.2019 08:30 4,9 C 4,4 C 3,9 C 94 % 1000,7 hPa 0,0 l/m 0 min 0 min 13 W/m 16,1 km/h (3 Bft) 97,87 %
13.11.2019 08:32 4,9 C 4,4 C 3,9 C 94 % 1000,7 hPa 0,0 l/m 0 min 0 min 15 W/m 12,9 km/h (3 Bft) 97,87 %
13.11.2019 08:34 4,9 C 4,4 C 3,9 C 94 % 1000,7 hPa 0,0 l/m 0 min 0 min 18 W/m 12,9 km/h (3 Bft) 97,87 %
13.11.2019 08:36 4,9 C 4,4 C 3,9 C 94 % 1000,7 hPa 0,0 l/m 0 min 0 min 19 W/m 16,1 km/h (3 Bft) 97,87 %
13.11.2019 08:38 4,9 C 4,4 C 3,9 C 94 % 1000,8 hPa 0,0 l/m 0 min 0 min 17 W/m 12,9 km/h (3 Bft) 95,65 %
13.11.2019 08:40 5,0 C 4,4 C 3,9 C 94 % 1000,8 hPa 0,0 l/m 0 min 0 min 18 W/m 16,1 km/h (3 Bft) 95,74 %
13.11.2019 08:42 5,0 C 4,4 C 3,9 C 94 % 1000,8 hPa 0,0 l/m 0 min 0 min 19 W/m 16,1 km/h (3 Bft) 95,74 %
13.11.2019 08:44 5,0 C 5,0 C 3,9 C 94 % 1000,8 hPa 0,0 l/m 0 min 0 min 25 W/m 16,1 km/h (3 Bft) 95,74 %
13.11.2019 08:46 5,1 C 5,0 C 3,9 C 94 % 1000,8 hPa 0,0 l/m 0 min 0 min 26 W/m 12,9 km/h (3 Bft) 95,74 %
13.11.2019 08:48 5,1 C 5,0 C 4,4 C 94 % 1000,8 hPa 0,0 l/m 0 min 0 min 27 W/m 16,1 km/h (3 Bft) 93,62 %
13.11.2019 08:50 5,1 C 5,0 C 4,4 C 94 % 1000,8 hPa 0,0 l/m 0 min 0 min 30 W/m 16,1 km/h (3 Bft) 95,65 %
13.11.2019 08:52 5,1 C 5,0 C 4,4 C 94 % 1000,8 hPa 0,0 l/m 0 min 0 min 33 W/m 12,9 km/h (3 Bft) 95,74 %
13.11.2019 08:54 5,1 C 5,0 C 4,4 C 94 % 1000,8 hPa 0,0 l/m 0 min 0 min 33 W/m 19,3 km/h (3 Bft) 95,74 %
13.11.2019 08:56 5,1 C 5,0 C 4,4 C 94 % 1000,8 hPa 0,0 l/m 0 min 0 min 31 W/m 12,9 km/h (3 Bft) 95,74 %
13.11.2019 08:58 5,2 C 5,0 C 4,4 C 94 % 1000,9 hPa 0,0 l/m 0 min 0 min 30 W/m 22,5 km/h (4 Bft) 89,36 %
13.11.2019 09:00 5,2 C 5,0 C 4,4 C 94 % 1000,9 hPa 0,0 l/m 0 min 0 min 29 W/m 19,3 km/h (3 Bft) 93,62 %
13.11.2019 09:02 5,2 C 5,0 C 4,4 C 94 % 1000,9 hPa 0,0 l/m 0 min 0 min 31 W/m 12,9 km/h (3 Bft) 91,30 %
13.11.2019 09:04 5,2 C 5,0 C 4,4 C 94 % 1001,0 hPa 0,0 l/m 0 min 0 min 36 W/m 22,5 km/h (4 Bft) 85,11 %
13.11.2019 09:06 5,2 C 5,0 C 4,4 C 94 % 1001,0 hPa 0,0 l/m 0 min 0 min 34 W/m 22,5 km/h (4 Bft) 95,74 %
13.11.2019 09:08 5,3 C 5,0 C 4,4 C 94 % 1000,9 hPa 0,0 l/m 0 min 0 min 32 W/m 16,1 km/h (3 Bft) 93,62 %
13.11.2019 09:10 5,3 C 5,0 C 4,4 C 94 % 1000,9 hPa 0,0 l/m 0 min 0 min 33 W/m 22,5 km/h (4 Bft) 93,62 %
13.11.2019 09:12 5,3 C 5,0 C 4,4 C 94 % 1000,9 hPa 0,0 l/m 0 min 0 min 38 W/m 22,5 km/h (4 Bft) 93,62 %
13.11.2019 09:14 5,3 C 5,0 C 4,4 C 94 % 1000,9 hPa 0,0 l/m 0 min 0 min 40 W/m 25,7 km/h (4 Bft) 91,30 %
13.11.2019 09:16 5,4 C 5,0 C 4,4 C 94 % 1000,9 hPa 0,0 l/m 0 min 0 min 46 W/m 19,3 km/h (3 Bft) 93,62 %
13.11.2019 09:18 5,4 C 5,6 C 4,4 C 94 % 1000,9 hPa 0,0 l/m 0 min 0 min 50 W/m 25,7 km/h (4 Bft) 89,36 %
13.11.2019 09:20 5,4 C 5,6 C 4,4 C 94 % 1000,9 hPa 0,0 l/m 0 min 0 min 53 W/m 16,1 km/h (3 Bft) 91,49 %
13.11.2019 09:22 5,4 C 5,6 C 5,0 C 94 % 1000,9 hPa 0,0 l/m 0 min 0 min 60 W/m 16,1 km/h (3 Bft) 93,62 %
13.11.2019 09:24 5,5 C 5,6 C 5,0 C 94 % 1001,0 hPa 0,0 l/m 0 min 0 min 67 W/m 25,7 km/h (4 Bft) 97,87 %
13.11.2019 09:26 5,6 C 5,6 C 5,0 C 94 % 1001,0 hPa 0,0 l/m 0 min 0 min 69 W/m 25,7 km/h (4 Bft) 95,65 %
13.11.2019 09:28 5,6 C 5,6 C 5,0 C 94 % 1001,0 hPa 0,0 l/m 0 min 0 min 69 W/m 12,9 km/h (3 Bft) 95,74 %
13.11.2019 09:30 5,6 C 5,6 C 5,0 C 94 % 1001,0 hPa 0,0 l/m 0 min 0 min 64 W/m 22,5 km/h (4 Bft) 95,74 %
13.11.2019 09:32 5,6 C 5,6 C 5,0 C 94 % 1001,0 hPa 0,0 l/m 0 min 0 min 65 W/m 16,1 km/h (3 Bft) 91,49 %
13.11.2019 09:34 5,7 C 5,6 C 5,0 C 94 % 1001,0 hPa 0,0 l/m 0 min 0 min 72 W/m 19,3 km/h (3 Bft) 95,74 %
13.11.2019 09:36 5,7 C 5,6 C 5,0 C 94 % 1001,0 hPa 0,0 l/m 0 min 0 min 76 W/m 16,1 km/h (3 Bft) 97,83 %
13.11.2019 09:38 5,7 C 6,1 C 5,0 C 94 % 1001,0 hPa 0,0 l/m 0 min 0 min 72 W/m 19,3 km/h (3 Bft) 97,87 %
13.11.2019 09:40 5,8 C 5,6 C 5,0 C 94 % 1001,1 hPa 0,0 l/m 0 min 0 min 69 W/m 22,5 km/h (4 Bft) 100,00 %
13.11.2019 09:42 5,8 C 6,1 C 5,0 C 94 % 1001,0 hPa 0,0 l/m 0 min 0 min 79 W/m 25,7 km/h (4 Bft) 97,87 %
13.11.2019 09:44 5,8 C 6,1 C 5,0 C 94 % 1001,0 hPa 0,0 l/m 0 min 0 min 83 W/m 29,0 km/h (5 Bft) 100,00 %
13.11.2019 09:46 5,8 C 6,1 C 5,6 C 94 % 1001,1 hPa 0,0 l/m 0 min 0 min 68 W/m 12,9 km/h (3 Bft) 100,00 %
13.11.2019 09:48 5,9 C 6,1 C 5,0 C 94 % 1001,1 hPa 0,0 l/m 0 min 0 min 61 W/m 12,9 km/h (3 Bft) 97,83 %
13.11.2019 09:50 5,9 C 6,1 C 5,0 C 94 % 1001,2 hPa 0,0 l/m 0 min 0 min 62 W/m 22,5 km/h (4 Bft) 97,87 %
13.11.2019 09:52 5,9 C 5,6 C 5,0 C 94 % 1001,2 hPa 0,0 l/m 0 min 0 min 60 W/m 32,2 km/h (5 Bft) 97,87 %
13.11.2019 09:54 6,0 C 5,6 C 5,0 C 94 % 1001,2 hPa 0,0 l/m 0 min 2 min 58 W/m 25,7 km/h (4 Bft) 100,00 %
13.11.2019 09:56 6,0 C 5,6 C 5,0 C 94 % 1001,2 hPa 0,0 l/m 0 min 0 min 62 W/m 22,5 km/h (4 Bft) 100,00 %
13.11.2019 09:58 6,0 C 5,6 C 5,0 C 94 % 1001,2 hPa 0,0 l/m 0 min 0 min 66 W/m 25,7 km/h (4 Bft) 100,00 %
13.11.2019 10:00 6,1 C 6,1 C 5,0 C 94 % 1001,3 hPa 0,0 l/m 0 min 0 min 66 W/m 25,7 km/h (4 Bft) 100,00 %
13.11.2019 10:02 6,1 C 6,1 C 5,0 C 94 % 1001,2 hPa 0,0 l/m 0 min 0 min 61 W/m 16,1 km/h (3 Bft) 97,92 %
13.11.2019 10:04 6,1 C 6,1 C 5,6 C 94 % 1001,2 hPa 0,0 l/m 0 min 0 min 76 W/m 19,3 km/h (3 Bft) 100,00 %
13.11.2019 10:06 6,1 C 6,1 C 5,6 C 94 % 1001,2 hPa 0,0 l/m 0 min 0 min 127 W/m 19,3 km/h (3 Bft) 100,00 %
13.11.2019 10:08 6,2 C 6,7 C 5,6 C 94 % 1001,3 hPa 0,0 l/m 0 min 0 min 131 W/m 19,3 km/h (3 Bft) 100,00 %
13.11.2019 10:10 6,2 C 6,7 C 5,6 C 94 % 1001,3 hPa 0,0 l/m 0 min 0 min 119 W/m 19,3 km/h (3 Bft) 100,00 %
13.11.2019 10:12 6,2 C 6,1 C 5,6 C 94 % 1001,3 hPa 0,0 l/m 0 min 0 min 85 W/m 19,3 km/h (3 Bft) 100,00 %
13.11.2019 10:14 6,2 C 6,1 C 5,6 C 94 % 1001,3 hPa 0,0 l/m 0 min 0 min 72 W/m 22,5 km/h (4 Bft) 100,00 %
13.11.2019 10:16 6,3 C 6,1 C 5,6 C 94 % 1001,3 hPa 0,0 l/m 0 min 0 min 86 W/m 22,5 km/h (4 Bft) 100,00 %
13.11.2019 10:18 6,3 C 6,1 C 5,6 C 94 % 1001,3 hPa 0,0 l/m 0 min 0 min 85 W/m 16,1 km/h (3 Bft) 93,48 %
13.11.2019 10:20 6,3 C 6,1 C 5,6 C 94 % 1001,3 hPa 0,0 l/m 0 min 0 min 82 W/m 25,7 km/h (4 Bft) 97,87 %
13.11.2019 10:22 6,3 C 6,1 C 5,6 C 94 % 1001,3 hPa 0,0 l/m 0 min 0 min 97 W/m 29,0 km/h (5 Bft) 97,87 %
13.11.2019 10:24 6,3 C 6,7 C 5,6 C 94 % 1001,2 hPa 0,0 l/m 0 min 0 min 106 W/m 16,1 km/h (3 Bft) 100,00 %
13.11.2019 10:26 6,4 C 6,7 C 5,6 C 94 % 1001,3 hPa 0,0 l/m 0 min 0 min 106 W/m 12,9 km/h (3 Bft) 100,00 %
13.11.2019 10:28 6,4 C 6,7 C 5,6 C 94 % 1001,3 hPa 0,0 l/m 0 min 0 min 104 W/m 19,3 km/h (3 Bft) 100,00 %
13.11.2019 10:30 6,4 C 6,7 C 5,6 C 94 % 1001,3 hPa 0,0 l/m 0 min 0 min 94 W/m 19,3 km/h (3 Bft) 100,00 %
13.11.2019 10:32 6,5 C 6,7 C 5,6 C 94 % 1001,4 hPa 0,0 l/m 0 min 0 min 97 W/m 19,3 km/h (3 Bft) 100,00 %
13.11.2019 10:34 6,5 C 6,7 C 6,1 C 94 % 1001,4 hPa 0,0 l/m 0 min 0 min 93 W/m 19,3 km/h (3 Bft) 97,87 %
13.11.2019 10:36 6,5 C 6,7 C 6,1 C 94 % 1001,4 hPa 0,0 l/m 0 min 0 min 84 W/m 12,9 km/h (3 Bft) 100,00 %
13.11.2019 10:38 6,5 C 6,7 C 6,1 C 94 % 1001,4 hPa 0,0 l/m 0 min 0 min 88 W/m 19,3 km/h (3 Bft) 100,00 %
13.11.2019 10:40 6,6 C 6,7 C 6,1 C 93 % 1001,4 hPa 0,0 l/m 0 min 0 min 96 W/m 22,5 km/h (4 Bft) 97,14 %
13.11.2019 10:42 6,6 C 6,7 C 6,1 C 93 % 1001,4 hPa 0,0 l/m 0 min 0 min 101 W/m 12,9 km/h (3 Bft) 100,00 %
13.11.2019 10:44 6,6 C 6,7 C 6,1 C 93 % 1001,5 hPa 0,0 l/m 0 min 0 min 90 W/m 16,1 km/h (3 Bft) 100,00 %
13.11.2019 10:46 6,6 C 6,7 C 6,1 C 93 % 1001,5 hPa 0,0 l/m 0 min 0 min 88 W/m 25,7 km/h (4 Bft) 100,00 %
13.11.2019 10:48 6,6 C 6,7 C 6,1 C 94 % 1001,5 hPa 0,0 l/m 0 min 0 min 76 W/m 19,3 km/h (3 Bft) 100,00 %
13.11.2019 10:50 6,7 C 6,7 C 6,1 C 93 % 1001,5 hPa 0,0 l/m 0 min 0 min 85 W/m 29,0 km/h (5 Bft) 100,00 %
13.11.2019 10:52 6,7 C 6,7 C 6,1 C 93 % 1001,5 hPa 0,0 l/m 0 min 0 min 82 W/m 22,5 km/h (4 Bft) 97,87 %
13.11.2019 10:54 6,7 C 6,7 C 6,1 C 93 % 1001,5 hPa 0,0 l/m 0 min 0 min 68 W/m 19,3 km/h (3 Bft) 100,00 %
13.11.2019 10:56 6,7 C 6,7 C 6,1 C 93 % 1001,5 hPa 0,0 l/m 0 min 0 min 63 W/m 16,1 km/h (3 Bft) 100,00 %
13.11.2019 10:58 6,7 C 6,7 C 6,1 C 93 % 1001,5 hPa 0,0 l/m 0 min 0 min 61 W/m 16,1 km/h (3 Bft) 100,00 %
13.11.2019 11:00 6,7 C 6,7 C 6,1 C 93 % 1001,5 hPa 0,0 l/m 0 min 0 min 76 W/m 22,5 km/h (4 Bft) 100,00 %
13.11.2019 11:02 6,8 C 6,7 C 6,1 C 93 % 1001,5 hPa 0,0 l/m 0 min 0 min 106 W/m 9,7 km/h (2 Bft) 100,00 %
13.11.2019 11:04 6,8 C 7,2 C 6,7 C 93 % 1001,5 hPa 0,0 l/m 0 min 0 min 133 W/m 25,7 km/h (4 Bft) 100,00 %
13.11.2019 11:06 6,8 C 7,2 C 6,7 C 93 % 1001,5 hPa 0,0 l/m 0 min 0 min 101 W/m 16,1 km/h (3 Bft) 100,00 %
13.11.2019 11:08 6,8 C 7,2 C 6,1 C 93 % 1001,5 hPa 0,0 l/m 0 min 0 min 87 W/m 16,1 km/h (3 Bft) 100,00 %
13.11.2019 11:10 6,9 C 7,2 C 6,1 C 93 % 1001,4 hPa 0,0 l/m 0 min 0 min 98 W/m 19,3 km/h (3 Bft) 100,00 %
13.11.2019 11:12 6,9 C 6,7 C 6,1 C 93 % 1001,5 hPa 0,0 l/m 0 min 0 min 82 W/m 25,7 km/h (4 Bft) 100,00 %
13.11.2019 11:14 6,9 C 6,7 C 6,1 C 93 % 1001,5 hPa 0,0 l/m 0 min 0 min 59 W/m 22,5 km/h (4 Bft) 100,00 %
13.11.2019 11:16 6,9 C 6,7 C 6,1 C 93 % 1001,5 hPa 0,0 l/m 0 min 0 min 58 W/m 12,9 km/h (3 Bft) 100,00 %
13.11.2019 11:18 6,9 C 6,7 C 6,1 C 93 % 1001,5 hPa 0,0 l/m 0 min 0 min 72 W/m 19,3 km/h (3 Bft) 97,87 %
13.11.2019 11:20 6,9 C 6,7 C 6,1 C 93 % 1001,5 hPa 0,0 l/m 0 min 0 min 90 W/m 22,5 km/h (4 Bft) 97,87 %
13.11.2019 11:22 6,9 C 7,2 C 6,1 C 93 % 1001,4 hPa 0,0 l/m 0 min 0 min 116 W/m 22,5 km/h (4 Bft) 97,83 %
13.11.2019 11:24 7,0 C 7,2 C 6,7 C 93 % 1001,5 hPa 0,0 l/m 0 min 0 min 128 W/m 19,3 km/h (3 Bft) 95,74 %
13.11.2019 11:26 7,0 C 7,2 C 6,7 C 93 % 1001,6 hPa 0,0 l/m 0 min 0 min 112 W/m 19,3 km/h (3 Bft) 95,74 %
13.11.2019 11:28 7,1 C 7,2 C 6,7 C 93 % 1001,5 hPa 0,0 l/m 0 min 0 min 73 W/m 16,1 km/h (3 Bft) 95,74 %
13.11.2019 11:30 7,1 C 7,2 C 6,1 C 93 % 1001,6 hPa 0,0 l/m 0 min 0 min 65 W/m 12,9 km/h (3 Bft) 97,87 %
13.11.2019 11:32 7,1 C 7,2 C 6,1 C 92 % 1001,6 hPa 0,0 l/m 0 min 0 min 64 W/m 16,1 km/h (3 Bft) 95,74 %
13.11.2019 11:34 7,1 C 7,2 C 6,1 C 92 % 1001,5 hPa 0,0 l/m 0 min 0 min 72 W/m 16,1 km/h (3 Bft) 97,83 %
13.11.2019 11:36 7,1 C 7,2 C 6,1 C 92 % 1001,6 hPa 0,0 l/m 0 min 0 min 76 W/m 22,5 km/h (4 Bft) 95,74 %
13.11.2019 11:38 7,1 C 7,2 C 6,7 C 92 % 1001,6 hPa 0,0 l/m 0 min 0 min 91 W/m 16,1 km/h (3 Bft) 95,74 %
13.11.2019 11:40 7,1 C 7,2 C 6,7 C 92 % 1001,6 hPa 0,0 l/m 0 min 0 min 97 W/m 16,1 km/h (3 Bft) 93,62 %
13.11.2019 11:42 7,2 C 7,2 C 6,7 C 92 % 1001,5 hPa 0,0 l/m 0 min 0 min 84 W/m 16,1 km/h (3 Bft) 93,62 %
13.11.2019 11:44 7,2 C 7,2 C 6,7 C 92 % 1001,5 hPa 0,0 l/m 0 min 0 min 88 W/m 19,3 km/h (3 Bft) 93,48 %
13.11.2019 11:46 7,2 C 7,2 C 6,7 C 92 % 1001,5 hPa 0,0 l/m 0 min 0 min 103 W/m 29,0 km/h (5 Bft) 93,62 %
13.11.2019 11:48 7,2 C 7,2 C 6,7 C 92 % 1001,5 hPa 0,0 l/m 0 min 0 min 93 W/m 16,1 km/h (3 Bft) 93,62 %
13.11.2019 11:50 7,2 C 7,2 C 6,7 C 92 % 1001,5 hPa 0,0 l/m 0 min 0 min 95 W/m 16,1 km/h (3 Bft) 89,36 %
13.11.2019 11:52 7,2 C 7,2 C 6,7 C 92 % 1001,5 hPa 0,0 l/m 0 min 0 min 99 W/m 22,5 km/h (4 Bft) 93,62 %
13.11.2019 11:54 7,2 C 7,2 C 6,7 C 92 % 1001,5 hPa 0,0 l/m 0 min 0 min 101 W/m 22,5 km/h (4 Bft) 93,62 %
13.11.2019 11:56 7,2 C 7,2 C 6,7 C 92 % 1001,6 hPa 0,0 l/m 0 min 0 min 79 W/m 22,5 km/h (4 Bft) 86,96 %
13.11.2019 11:58 7,3 C 7,2 C 6,7 C 92 % 1001,6 hPa 0,0 l/m 0 min 0 min 76 W/m 22,5 km/h (4 Bft) 93,62 %
13.11.2019 12:00 7,3 C 7,2 C 6,7 C 92 % 1001,5 hPa 0,0 l/m 0 min 0 min 91 W/m 25,7 km/h (4 Bft) 93,62 %
13.11.2019 12:02 7,3 C 7,2 C 6,7 C 92 % 1001,6 hPa 0,0 l/m 0 min 0 min 97 W/m 32,2 km/h (5 Bft) 93,62 %
13.11.2019 12:04 7,3 C 7,2 C 6,7 C 92 % 1001,5 hPa 0,0 l/m 0 min 0 min 121 W/m 12,9 km/h (3 Bft) 95,74 %
13.11.2019 12:08 7,3 C 7,8 C 6,7 C 92 % 1001,5 hPa 0,0 l/m 0 min 0 min 139 W/m 19,3 km/h (3 Bft) 94,62 %
13.11.2019 12:10 7,3 C 7,8 C 6,7 C 92 % 1001,5 hPa 0,0 l/m 0 min 0 min 135 W/m 12,9 km/h (3 Bft) 91,49 %
13.11.2019 12:12 7,3 C 7,8 C 6,7 C 92 % 1001,6 hPa 0,0 l/m 0 min 0 min 130 W/m 16,1 km/h (3 Bft) 95,74 %
13.11.2019 12:14 7,4 C 7,8 C 6,7 C 92 % 1001,5 hPa 0,0 l/m 0 min 0 min 118 W/m 19,3 km/h (3 Bft) 95,74 %
13.11.2019 12:16 7,4 C 7,8 C 6,7 C 92 % 1001,5 hPa 0,0 l/m 0 min 0 min 111 W/m 22,5 km/h (4 Bft) 95,74 %
13.11.2019 12:18 7,4 C 7,8 C 6,7 C 92 % 1001,5 hPa 0,0 l/m 0 min 0 min 133 W/m 22,5 km/h (4 Bft) 95,74 %
13.11.2019 12:20 7,4 C 7,8 C 7,2 C 92 % 1001,5 hPa 0,0 l/m 0 min 0 min 156 W/m 22,5 km/h (4 Bft) 95,65 %
13.11.2019 12:22 7,5 C 7,8 C 7,2 C 92 % 1001,4 hPa 0,0 l/m 0 min 0 min 138 W/m 25,7 km/h (4 Bft) 97,87 %
13.11.2019 12:24 7,5 C 7,8 C 7,2 C 92 % 1001,4 hPa 0,0 l/m 0 min 0 min 105 W/m 19,3 km/h (3 Bft) 95,74 %
13.11.2019 12:26 7,6 C 7,8 C 6,7 C 92 % 1001,4 hPa 0,0 l/m 0 min 0 min 88 W/m 22,5 km/h (4 Bft) 95,74 %
13.11.2019 12:28 7,6 C 7,8 C 6,7 C 92 % 1001,4 hPa 0,0 l/m 0 min 0 min 132 W/m 22,5 km/h (4 Bft) 95,74 %
13.11.2019 12:30 7,6 C 7,8 C 6,7 C 92 % 1001,3 hPa 0,0 l/m 0 min 0 min 146 W/m 16,1 km/h (3 Bft) 97,87 %
13.11.2019 12:32 7,6 C 7,8 C 6,7 C 92 % 1001,4 hPa 0,0 l/m 0 min 0 min 167 W/m 22,5 km/h (4 Bft) 97,83 %
13.11.2019 12:34 7,6 C 7,8 C 6,7 C 92 % 1001,4 hPa 0,0 l/m 0 min 0 min 150 W/m 22,5 km/h (4 Bft) 97,87 %
13.11.2019 12:36 7,6 C 7,8 C 6,7 C 91 % 1001,4 hPa 0,0 l/m 0 min 0 min 146 W/m 22,5 km/h (4 Bft) 95,74 %
13.11.2019 12:38 7,6 C 7,8 C 7,2 C 91 % 1001,5 hPa 0,0 l/m 0 min 0 min 138 W/m 25,7 km/h (4 Bft) 95,74 %
13.11.2019 12:40 7,7 C 7,8 C 7,2 C 91 % 1001,4 hPa 0,0 l/m 0 min 0 min 137 W/m 22,5 km/h (4 Bft) 100,00 %
13.11.2019 12:42 7,7 C 7,8 C 7,2 C 91 % 1001,4 hPa 0,0 l/m 0 min 0 min 142 W/m 19,3 km/h (3 Bft) 100,00 %
13.11.2019 12:44 7,7 C 8,3 C 7,2 C 91 % 1001,4 hPa 0,0 l/m 0 min 0 min 145 W/m 12,9 km/h (3 Bft) 100,00 %
13.11.2019 12:46 7,7 C 7,8 C 7,2 C 91 % 1001,4 hPa 0,0 l/m 0 min 0 min 120 W/m 29,0 km/h (5 Bft) 95,74 %
13.11.2019 12:48 7,7 C 7,8 C 6,7 C 91 % 1001,4 hPa 0,0 l/m 0 min 0 min 116 W/m 22,5 km/h (4 Bft) 100,00 %
13.11.2019 12:50 7,7 C 8,9 C 6,7 C 91 % 1001,4 hPa 0,0 l/m 0 min 0 min 168 W/m 16,1 km/h (3 Bft) 100,00 %
13.11.2019 12:52 7,8 C 9,4 C 6,7 C 92 % 1001,5 hPa 0,0 l/m 2 min 0 min 235 W/m 29,0 km/h (5 Bft) 100,00 %
13.11.2019 12:54 7,8 C 8,9 C 6,7 C 92 % 1001,4 hPa 0,0 l/m 2 min 0 min 186 W/m 22,5 km/h (4 Bft) 100,00 %
13.11.2019 12:56 7,8 C 8,3 C 6,7 C 92 % 1001,4 hPa 0,0 l/m 0 min 0 min 127 W/m 12,9 km/h (3 Bft) 100,00 %
13.11.2019 12:58 7,8 C 8,3 C 6,7 C 92 % 1001,4 hPa 0,0 l/m 0 min 0 min 150 W/m 19,3 km/h (3 Bft) 100,00 %
13.11.2019 13:00 7,8 C 8,9 C 6,7 C 92 % 1001,4 hPa 0,0 l/m 2 min 0 min 204 W/m 19,3 km/h (3 Bft) 100,00 %
13.11.2019 13:02 7,8 C 8,9 C 7,2 C 92 % 1001,5 hPa 0,0 l/m 2 min 0 min 204 W/m 19,3 km/h (3 Bft) 97,87 %
13.11.2019 13:04 7,9 C 8,9 C 7,2 C 92 % 1001,5 hPa 0,0 l/m 2 min 0 min 215 W/m 22,5 km/h (4 Bft) 100,00 %
13.11.2019 13:06 7,9 C 8,9 C 7,2 C 92 % 1001,5 hPa 0,0 l/m 2 min 0 min 228 W/m 16,1 km/h (3 Bft) 100,00 %
13.11.2019 13:08 7,9 C 8,9 C 7,2 C 92 % 1001,5 hPa 0,0 l/m 2 min 0 min 228 W/m 22,5 km/h (4 Bft) 100,00 %
13.11.2019 13:10 7,9 C 8,9 C 7,8 C 92 % 1001,5 hPa 0,0 l/m 2 min 0 min 213 W/m 19,3 km/h (3 Bft) 100,00 %
13.11.2019 13:12 7,9 C 8,3 C 7,8 C 92 % 1001,5 hPa 0,0 l/m 0 min 0 min 159 W/m 25,7 km/h (4 Bft) 100,00 %
13.11.2019 13:14 8,0 C 7,8 C 7,2 C 92 % 1001,5 hPa 0,0 l/m 0 min 0 min 114 W/m 25,7 km/h (4 Bft) 100,00 %
13.11.2019 13:16 8,0 C 7,8 C 7,2 C 92 % 1001,5 hPa 0,0 l/m 0 min 2 min 109 W/m 16,1 km/h (3 Bft) 100,00 %
13.11.2019 13:18 8,0 C 7,8 C 7,2 C 92 % 1001,5 hPa 0,0 l/m 0 min 2 min 130 W/m 16,1 km/h (3 Bft) 100,00 %
13.11.2019 13:20 8,0 C 7,8 C 6,7 C 92 % 1001,5 hPa 0,0 l/m 0 min 2 min 152 W/m 16,1 km/h (3 Bft) 100,00 %
13.11.2019 13:22 8,0 C 7,8 C 6,7 C 92 % 1001,5 hPa 0,0 l/m 0 min 0 min 154 W/m 16,1 km/h (3 Bft) 100,00 %
13.11.2019 13:24 8,0 C 7,8 C 6,7 C 92 % 1001,5 hPa 0,0 l/m 0 min 0 min 130 W/m 12,9 km/h (3 Bft) 97,87 %
13.11.2019 13:26 8,0 C 7,8 C 6,7 C 92 % 1001,5 hPa 0,0 l/m 0 min 0 min 108 W/m 22,5 km/h (4 Bft) 100,00 %
13.11.2019 13:28 8,0 C 7,8 C 6,7 C 92 % 1001,5 hPa 0,0 l/m 0 min 0 min 89 W/m 12,9 km/h (3 Bft) 100,00 %
13.11.2019 13:30 8,0 C 7,2 C 6,7 C 92 % 1001,6 hPa 0,0 l/m 0 min 0 min 81 W/m 6,4 km/h (2 Bft) 100,00 %
13.11.2019 13:32 8,0 C 7,8 C 6,7 C 92 % 1001,6 hPa 0,0 l/m 0 min 0 min 90 W/m 6,4 km/h (2 Bft) 100,00 %
13.11.2019 13:34 8,0 C 7,2 C 6,7 C 92 % 1001,6 hPa 0,0 l/m 0 min 0 min 96 W/m 16,1 km/h (3 Bft) 100,00 %
13.11.2019 13:36 8,0 C 7,2 C 6,7 C 92 % 1001,6 hPa 0,0 l/m 0 min 0 min 88 W/m 9,7 km/h (2 Bft) 97,87 %
13.11.2019 13:38 8,0 C 7,2 C 6,7 C 92 % 1001,7 hPa 0,0 l/m 0 min 2 min 72 W/m 22,5 km/h (4 Bft) 100,00 %
13.11.2019 13:40 7,9 C 7,2 C 6,7 C 92 % 1001,6 hPa 0,0 l/m 0 min 0 min 63 W/m 16,1 km/h (3 Bft) 97,83 %
13.11.2019 13:42 7,9 C 6,7 C 6,7 C 92 % 1001,6 hPa 0,0 l/m 0 min 0 min 68 W/m 29,0 km/h (5 Bft) 95,74 %
13.11.2019 13:44 7,9 C 7,2 C 6,7 C 92 % 1001,6 hPa 0,0 l/m 0 min 0 min 86 W/m 16,1 km/h (3 Bft) 97,87 %
13.11.2019 13:46 7,9 C 7,2 C 6,7 C 92 % 1001,7 hPa 0,0 l/m 0 min 0 min 102 W/m 25,7 km/h (4 Bft) 95,74 %
13.11.2019 13:48 7,8 C 7,2 C 6,7 C 92 % 1001,6 hPa 0,0 l/m 0 min 0 min 123 W/m 16,1 km/h (3 Bft) 97,87 %
13.11.2019 13:50 7,8 C 7,2 C 6,7 C 92 % 1001,6 hPa 0,0 l/m 0 min 0 min 132 W/m 19,3 km/h (3 Bft) 95,74 %
13.11.2019 13:52 7,8 C 7,2 C 6,7 C 92 % 1001,6 hPa 0,0 l/m 0 min 0 min 139 W/m 16,1 km/h (3 Bft) 95,65 %
13.11.2019 13:54 7,8 C 7,8 C 6,7 C 92 % 1001,7 hPa 0,0 l/m 0 min 0 min 137 W/m 16,1 km/h (3 Bft) 97,87 %
13.11.2019 13:56 7,8 C 7,8 C 6,7 C 92 % 1001,6 hPa 0,0 l/m 0 min 0 min 121 W/m 19,3 km/h (3 Bft) 97,87 %
13.11.2019 13:58 7,8 C 7,8 C 6,7 C 92 % 1001,7 hPa 0,0 l/m 0 min 0 min 105 W/m 19,3 km/h (3 Bft) 97,87 %
13.11.2019 14:00 7,8 C 7,8 C 6,7 C 92 % 1001,7 hPa 0,0 l/m 0 min 0 min 105 W/m 19,3 km/h (3 Bft) 97,87 %
13.11.2019 14:02 7,8 C 7,8 C 6,7 C 92 % 1001,6 hPa 0,0 l/m 0 min 0 min 108 W/m 22,5 km/h (4 Bft) 95,74 %
13.11.2019 14:04 7,8 C 7,8 C 7,2 C 92 % 1001,7 hPa 0,0 l/m 0 min 0 min 114 W/m 22,5 km/h (4 Bft) 97,83 %
13.11.2019 14:06 7,8 C 7,8 C 7,2 C 92 % 1001,6 hPa 0,0 l/m 0 min 0 min 120 W/m 19,3 km/h (3 Bft) 97,87 %
13.11.2019 14:08 7,8 C 7,8 C 7,2 C 92 % 1001,6 hPa 0,0 l/m 0 min 0 min 119 W/m 22,5 km/h (4 Bft) 93,62 %
13.11.2019 14:10 7,8 C 7,8 C 7,2 C 92 % 1001,6 hPa 0,0 l/m 0 min 0 min 111 W/m 22,5 km/h (4 Bft) 95,74 %
13.11.2019 14:12 7,8 C 7,8 C 7,2 C 92 % 1001,7 hPa 0,0 l/m 0 min 0 min 93 W/m 16,1 km/h (3 Bft) 97,87 %
13.11.2019 14:14 7,8 C 7,8 C 7,2 C 92 % 1001,6 hPa 0,0 l/m 0 min 0 min 83 W/m 19,3 km/h (3 Bft) 97,83 %
13.11.2019 14:16 7,8 C 7,8 C 7,2 C 92 % 1001,7 hPa 0,0 l/m 0 min 0 min 79 W/m 16,1 km/h (3 Bft) 97,87 %
13.11.2019 14:18 7,8 C 7,8 C 6,7 C 92 % 1001,6 hPa 0,0 l/m 0 min 0 min 74 W/m 19,3 km/h (3 Bft) 97,87 %
13.11.2019 14:20 7,8 C 7,8 C 6,7 C 92 % 1001,6 hPa 0,0 l/m 0 min 0 min 61 W/m 16,1 km/h (3 Bft) 97,87 %
13.11.2019 14:22 7,8 C 7,2 C 6,7 C 92 % 1001,6 hPa 0,0 l/m 0 min 0 min 55 W/m 16,1 km/h (3 Bft) 97,87 %
13.11.2019 14:24 7,8 C 7,2 C 6,7 C 92 % 1001,6 hPa 0,0 l/m 0 min 0 min 58 W/m 16,1 km/h (3 Bft) 97,87 %
13.11.2019 14:26 7,8 C 7,2 C 6,7 C 92 % 1001,7 hPa 0,0 l/m 0 min 0 min 50 W/m 22,5 km/h (4 Bft) 97,83 %
13.11.2019 14:28 7,8 C 7,2 C 6,7 C 92 % 1001,6 hPa 0,0 l/m 0 min 0 min 63 W/m 22,5 km/h (4 Bft) 100,00 %
13.11.2019 14:30 7,8 C 7,2 C 6,7 C 92 % 1001,6 hPa 0,0 l/m 0 min 0 min 78 W/m 29,0 km/h (5 Bft) 97,87 %
13.11.2019 14:32 7,8 C 7,8 C 6,7 C 92 % 1001,6 hPa 0,0 l/m 0 min 0 min 96 W/m 29,0 km/h (5 Bft) 100,00 %
13.11.2019 14:34 7,8 C 7,8 C 6,7 C 92 % 1001,6 hPa 0,0 l/m 0 min 0 min 111 W/m 22,5 km/h (4 Bft) 95,74 %
13.11.2019 14:36 7,8 C 7,8 C 6,7 C 92 % 1001,6 hPa 0,0 l/m 0 min 0 min 94 W/m 12,9 km/h (3 Bft) 93,62 %
13.11.2019 14:38 7,8 C 7,2 C 6,7 C 92 % 1001,6 hPa 0,0 l/m 0 min 0 min 65 W/m 25,7 km/h (4 Bft) 95,65 %
13.11.2019 14:40 7,8 C 7,2 C 6,7 C 92 % 1001,6 hPa 0,0 l/m 0 min 0 min 79 W/m 16,1 km/h (3 Bft) 97,87 %
13.11.2019 14:42 7,7 C 7,2 C 6,7 C 92 % 1001,6 hPa 0,0 l/m 0 min 0 min 93 W/m 22,5 km/h (4 Bft) 97,87 %
13.11.2019 14:44 7,7 C 7,2 C 6,7 C 92 % 1001,6 hPa 0,0 l/m 0 min 0 min 94 W/m 22,5 km/h (4 Bft) 97,87 %
13.11.2019 14:46 7,7 C 7,2 C 6,7 C 92 % 1001,6 hPa 0,0 l/m 0 min 0 min 103 W/m 22,5 km/h (4 Bft) 95,74 %
13.11.2019 14:48 7,7 C 7,8 C 6,7 C 92 % 1001,6 hPa 0,0 l/m 0 min 0 min 84 W/m 12,9 km/h (3 Bft) 95,74 %
13.11.2019 14:50 7,7 C 7,8 C 6,7 C 92 % 1001,6 hPa 0,0 l/m 0 min 0 min 96 W/m 19,3 km/h (3 Bft) 97,83 %
13.11.2019 14:52 7,7 C 7,8 C 6,7 C 92 % 1001,6 hPa 0,0 l/m 2 min 0 min 131 W/m 19,3 km/h (3 Bft) 93,62 %
13.11.2019 14:54 7,7 C 7,8 C 6,7 C 92 % 1001,6 hPa 0,0 l/m 2 min 0 min 137 W/m 25,7 km/h (4 Bft) 97,87 %
13.11.2019 14:56 7,8 C 7,8 C 6,7 C 92 % 1001,6 hPa 0,0 l/m 0 min 0 min 96 W/m 19,3 km/h (3 Bft) 97,87 %
13.11.2019 14:58 7,7 C 7,8 C 6,7 C 92 % 1001,5 hPa 0,0 l/m 0 min 0 min 66 W/m 16,1 km/h (3 Bft) 97,87 %
13.11.2019 15:00 7,7 C 7,2 C 6,7 C 92 % 1001,5 hPa 0,0 l/m 0 min 0 min 60 W/m 25,7 km/h (4 Bft) 97,87 %
13.11.2019 15:02 7,7 C 7,2 C 6,7 C 92 % 1001,5 hPa 0,0 l/m 0 min 0 min 68 W/m 22,5 km/h (4 Bft) 93,48 %
13.11.2019 15:04 7,7 C 7,2 C 6,7 C 92 % 1001,6 hPa 0,0 l/m 0 min 0 min 80 W/m 16,1 km/h (3 Bft) 97,87 %
13.11.2019 15:06 7,7 C 7,2 C 6,7 C 92 % 1001,5 hPa 0,0 l/m 0 min 0 min 82 W/m 22,5 km/h (4 Bft) 97,87 %
13.11.2019 15:08 7,7 C 7,2 C 6,7 C 92 % 1001,6 hPa 0,0 l/m 0 min 0 min 96 W/m 16,1 km/h (3 Bft) 95,74 %
13.11.2019 15:10 7,7 C 7,2 C 6,7 C 92 % 1001,6 hPa 0,0 l/m 0 min 0 min 71 W/m 12,9 km/h (3 Bft) 95,74 %
13.11.2019 15:12 7,7 C 7,2 C 6,7 C 92 % 1001,6 hPa 0,0 l/m 0 min 0 min 51 W/m 16,1 km/h (3 Bft) 95,74 %
13.11.2019 15:14 7,7 C 7,2 C 6,1 C 92 % 1001,7 hPa 0,0 l/m 0 min 0 min 44 W/m 19,3 km/h (3 Bft) 95,65 %
13.11.2019 15:16 7,6 C 7,2 C 6,1 C 92 % 1001,7 hPa 0,0 l/m 0 min 0 min 43 W/m 16,1 km/h (3 Bft) 95,74 %
13.11.2019 15:18 7,6 C 7,2 C 6,1 C 92 % 1001,7 hPa 0,0 l/m 0 min 0 min 45 W/m 16,1 km/h (3 Bft) 95,74 %
13.11.2019 15:20 7,6 C 7,2 C 6,1 C 92 % 1001,7 hPa 0,0 l/m 0 min 0 min 40 W/m 16,1 km/h (3 Bft) 97,87 %
13.11.2019 15:22 7,6 C 6,7 C 6,1 C 92 % 1001,7 hPa 0,0 l/m 0 min 0 min 38 W/m 19,3 km/h (3 Bft) 93,62 %
13.11.2019 15:24 7,6 C 6,7 C 6,1 C 92 % 1001,7 hPa 0,0 l/m 0 min 0 min 36 W/m 16,1 km/h (3 Bft) 95,74 %
13.11.2019 15:26 7,6 C 6,7 C 6,1 C 92 % 1001,7 hPa 0,0 l/m 0 min 0 min 35 W/m 19,3 km/h (3 Bft) 91,30 %
13.11.2019 15:28 7,5 C 6,7 C 6,1 C 92 % 1001,7 hPa 0,0 l/m 0 min 0 min 37 W/m 16,1 km/h (3 Bft) 97,87 %
13.11.2019 15:30 7,5 C 6,7 C 6,1 C 92 % 1001,8 hPa 0,0 l/m 0 min 0 min 41 W/m 25,7 km/h (4 Bft) 97,87 %
13.11.2019 15:32 7,5 C 6,7 C 6,1 C 92 % 1001,7 hPa 0,0 l/m 0 min 0 min 46 W/m 25,7 km/h (4 Bft) 95,74 %
13.11.2019 15:34 7,4 C 6,7 C 6,1 C 92 % 1001,8 hPa 0,0 l/m 0 min 0 min 54 W/m 19,3 km/h (3 Bft) 97,87 %
13.11.2019 15:36 7,4 C 7,2 C 6,1 C 92 % 1001,8 hPa 0,0 l/m 0 min 0 min 59 W/m 12,9 km/h (3 Bft) 97,83 %
13.11.2019 15:38 7,4 C 7,2 C 6,7 C 92 % 1001,8 hPa 0,0 l/m 0 min 0 min 59 W/m 19,3 km/h (3 Bft) 97,87 %
13.11.2019 15:40 7,4 C 7,2 C 6,7 C 93 % 1001,8 hPa 0,0 l/m 0 min 0 min 57 W/m 22,5 km/h (4 Bft) 97,87 %
13.11.2019 15:42 7,4 C 7,2 C 6,7 C 93 % 1001,8 hPa 0,0 l/m 0 min 0 min 55 W/m 12,9 km/h (3 Bft) 95,74 %
13.11.2019 15:44 7,4 C 7,2 C 6,7 C 93 % 1001,8 hPa 0,0 l/m 0 min 0 min 49 W/m 19,3 km/h (3 Bft) 97,87 %
13.11.2019 15:46 7,5 C 7,2 C 6,7 C 93 % 1001,8 hPa 0,0 l/m 0 min 0 min 46 W/m 22,5 km/h (4 Bft) 95,74 %
13.11.2019 15:48 7,4 C 7,2 C 6,7 C 93 % 1001,8 hPa 0,0 l/m 0 min 0 min 42 W/m 25,7 km/h (4 Bft) 97,83 %
13.11.2019 15:50 7,5 C 7,2 C 6,7 C 93 % 1001,8 hPa 0,0 l/m 0 min 0 min 38 W/m 16,1 km/h (3 Bft) 97,87 %
13.11.2019 15:52 7,5 C 7,2 C 6,7 C 93 % 1001,8 hPa 0,0 l/m 0 min 0 min 38 W/m 19,3 km/h (3 Bft) 97,87 %
13.11.2019 15:54 7,5 C 7,2 C 6,7 C 93 % 1001,8 hPa 0,0 l/m 0 min 0 min 38 W/m 19,3 km/h (3 Bft) 95,74 %
13.11.2019 15:56 7,5 C 7,2 C 6,7 C 93 % 1001,8 hPa 0,0 l/m 0 min 0 min 34 W/m 19,3 km/h (3 Bft) 97,87 %
13.11.2019 15:58 7,5 C 7,2 C 6,7 C 93 % 1001,8 hPa 0,0 l/m 0 min 0 min 33 W/m 12,9 km/h (3 Bft) 100,00 %
13.11.2019 16:00 7,5 C 7,2 C 6,7 C 93 % 1001,8 hPa 0,0 l/m 0 min 0 min 33 W/m 12,9 km/h (3 Bft) 100,00 %
13.11.2019 16:02 7,5 C 7,2 C 6,7 C 93 % 1001,8 hPa 0,0 l/m 0 min 0 min 31 W/m 22,5 km/h (4 Bft) 100,00 %
13.11.2019 16:04 7,5 C 7,2 C 6,7 C 93 % 1001,9 hPa 0,0 l/m 0 min 0 min 29 W/m 25,7 km/h (4 Bft) 100,00 %
13.11.2019 16:06 7,5 C 7,2 C 6,7 C 93 % 1001,8 hPa 0,0 l/m 0 min 0 min 27 W/m 16,1 km/h (3 Bft) 100,00 %
13.11.2019 16:08 7,5 C 7,2 C 6,7 C 93 % 1001,9 hPa 0,0 l/m 0 min 0 min 25 W/m 25,7 km/h (4 Bft) 100,00 %
13.11.2019 16:10 7,5 C 6,7 C 6,7 C 93 % 1001,8 hPa 0,0 l/m 0 min 0 min 24 W/m 16,1 km/h (3 Bft) 100,00 %
13.11.2019 16:12 7,5 C 6,7 C 6,1 C 93 % 1001,9 hPa 0,0 l/m 0 min 2 min 22 W/m 25,7 km/h (4 Bft) 100,00 %
13.11.2019 16:14 7,5 C 6,1 C 6,1 C 93 % 1001,9 hPa 0,0 l/m 0 min 2 min 18 W/m 29,0 km/h (5 Bft) 95,74 %
13.11.2019 16:16 7,5 C 6,1 C 6,1 C 93 % 1001,9 hPa 0,0 l/m 0 min 2 min 13 W/m 25,7 km/h (4 Bft) 97,87 %
13.11.2019 16:18 7,5 C 6,1 C 5,6 C 93 % 1001,9 hPa 0,0 l/m 0 min 2 min 11 W/m 19,3 km/h (3 Bft) 95,74 %
13.11.2019 16:20 7,4 C 6,1 C 5,6 C 93 % 1001,9 hPa 0,0 l/m 0 min 2 min 11 W/m 22,5 km/h (4 Bft) 97,87 %
13.11.2019 16:22 7,4 C 6,1 C 5,6 C 93 % 1002,0 hPa 0,0 l/m 0 min 2 min 10 W/m 19,3 km/h (3 Bft) 95,74 %
13.11.2019 16:24 7,4 C 6,1 C 5,6 C 93 % 1002,0 hPa 0,0 l/m 0 min 2 min 8 W/m 16,1 km/h (3 Bft) 97,83 %
13.11.2019 16:26 7,4 C 6,1 C 5,6 C 93 % 1002,0 hPa 0,0 l/m 0 min 0 min 7 W/m 22,5 km/h (4 Bft) 95,74 %
13.11.2019 16:28 7,4 C 6,1 C 5,6 C 93 % 1001,9 hPa 0,0 l/m 0 min 0 min 7 W/m 19,3 km/h (3 Bft) 95,74 %
13.11.2019 16:30 7,4 C 6,1 C 5,6 C 93 % 1001,9 hPa 0,0 l/m 0 min 0 min 5 W/m 25,7 km/h (4 Bft) 97,87 %
13.11.2019 16:32 7,4 C 6,1 C 5,6 C 93 % 1002,0 hPa 0,0 l/m 0 min 0 min 2 W/m 22,5 km/h (4 Bft) 97,87 %
13.11.2019 16:34 7,3 C 6,1 C 5,6 C 93 % 1002,0 hPa 0,0 l/m 0 min 0 min 0 W/m 22,5 km/h (4 Bft) 97,87 %
13.11.2019 16:36 7,3 C 6,1 C 5,6 C 93 % 1002,0 hPa 0,0 l/m 0 min 0 min 0 W/m 12,9 km/h (3 Bft) 97,83 %
13.11.2019 16:38 7,3 C 6,1 C 5,6 C 93 % 1002,0 hPa 0,0 l/m 0 min 0 min 0 W/m 19,3 km/h (3 Bft) 97,87 %
13.11.2019 16:40 7,3 C 6,1 C 5,6 C 93 % 1002,0 hPa 0,0 l/m 0 min 0 min 0 W/m 19,3 km/h (3 Bft) 97,87 %
13.11.2019 16:42 7,3 C 6,1 C 5,6 C 93 % 1002,0 hPa 0,0 l/m 0 min 0 min 0 W/m 16,1 km/h (3 Bft) 95,74 %
13.11.2019 16:44 7,3 C 6,1 C 5,6 C 93 % 1001,9 hPa 0,0 l/m 0 min 0 min 0 W/m 22,5 km/h (4 Bft) 95,74 %
13.11.2019 16:46 7,3 C 6,1 C 5,6 C 93 % 1002,0 hPa 0,0 l/m 0 min 0 min 0 W/m 16,1 km/h (3 Bft) 95,65 %
13.11.2019 16:48 7,3 C 6,1 C 5,6 C 93 % 1001,9 hPa 0,0 l/m 0 min 0 min 0 W/m 12,9 km/h (3 Bft) 97,87 %
13.11.2019 16:50 7,2 C 6,1 C 5,6 C 93 % 1002,0 hPa 0,0 l/m 0 min 0 min 0 W/m 12,9 km/h (3 Bft) 97,87 %
13.11.2019 16:52 7,2 C 6,1 C 5,6 C 93 % 1002,0 hPa 0,0 l/m 0 min 0 min 0 W/m 12,9 km/h (3 Bft) 97,87 %
13.11.2019 16:54 7,2 C 6,1 C 5,6 C 93 % 1002,0 hPa 0,0 l/m 0 min 0 min 0 W/m 19,3 km/h (3 Bft) 97,87 %
13.11.2019 16:56 7,2 C 6,1 C 5,6 C 93 % 1002,0 hPa 0,0 l/m 0 min 0 min 0 W/m 16,1 km/h (3 Bft) 97,87 %
13.11.2019 16:58 7,2 C 6,1 C 5,6 C 93 % 1002,0 hPa 0,0 l/m 0 min 0 min 0 W/m 16,1 km/h (3 Bft) 97,83 %
13.11.2019 17:00 7,2 C 6,1 C 5,6 C 93 % 1002,0 hPa 0,0 l/m 0 min 0 min 0 W/m 12,9 km/h (3 Bft) 97,87 %
13.11.2019 17:02 7,2 C 6,1 C 5,6 C 93 % 1002,0 hPa 0,0 l/m 0 min 0 min 0 W/m 12,9 km/h (3 Bft) 97,87 %
13.11.2019 17:04 7,1 C 6,1 C 5,6 C 93 % 1002,1 hPa 0,0 l/m 0 min 0 min 0 W/m 16,1 km/h (3 Bft) 97,87 %
13.11.2019 17:06 7,1 C 6,1 C 5,6 C 93 % 1002,1 hPa 0,0 l/m 0 min 0 min 0 W/m 16,1 km/h (3 Bft) 95,74 %
13.11.2019 17:08 7,1 C 6,1 C 5,6 C 93 % 1002,1 hPa 0,0 l/m 0 min 0 min 0 W/m 12,9 km/h (3 Bft) 100,00 %
13.11.2019 17:10 7,1 C 6,1 C 5,6 C 93 % 1002,1 hPa 0,0 l/m 0 min 0 min 0 W/m 16,1 km/h (3 Bft) 100,00 %
13.11.2019 17:12 7,1 C 6,1 C 5,6 C 93 % 1002,1 hPa 0,0 l/m 0 min 0 min 0 W/m 12,9 km/h (3 Bft) 100,00 %
13.11.2019 17:14 7,1 C 6,1 C 5,6 C 93 % 1002,2 hPa 0,0 l/m 0 min 0 min 0 W/m 16,1 km/h (3 Bft) 100,00 %
13.11.2019 17:16 7,1 C 6,1 C 5,6 C 93 % 1002,3 hPa 0,0 l/m 0 min 0 min 0 W/m 19,3 km/h (3 Bft) 97,87 %
13.11.2019 17:18 7,1 C 6,1 C 5,6 C 93 % 1002,3 hPa 0,0 l/m 0 min 0 min 0 W/m 16,1 km/h (3 Bft) 100,00 %
13.11.2019 17:20 7,1 C 6,1 C 5,6 C 94 % 1002,2 hPa 0,0 l/m 0 min 0 min 0 W/m 16,1 km/h (3 Bft) 100,00 %
13.11.2019 17:22 7,0 C 6,1 C 5,6 C 94 % 1002,2 hPa 0,0 l/m 0 min 0 min 0 W/m 16,1 km/h (3 Bft) 100,00 %
13.11.2019 17:24 7,0 C 6,1 C 5,6 C 93 % 1002,2 hPa 0,0 l/m 0 min 0 min 0 W/m 12,9 km/h (3 Bft) 100,00 %
13.11.2019 17:26 7,0 C 6,1 C 5,6 C 93 % 1002,3 hPa 0,0 l/m 0 min 0 min 0 W/m 16,1 km/h (3 Bft) 100,00 %
13.11.2019 17:28 7,0 C 6,1 C 5,6 C 93 % 1002,3 hPa 0,0 l/m 0 min 0 min 0 W/m 16,1 km/h (3 Bft) 100,00 %
13.11.2019 17:30 7,0 C 6,1 C 5,6 C 93 % 1002,3 hPa 0,0 l/m 0 min 0 min 0 W/m 6,4 km/h (2 Bft) 100,00 %
13.11.2019 17:32 6,9 C 6,1 C 5,6 C 93 % 1002,3 hPa 0,0 l/m 0 min 0 min 0 W/m 12,9 km/h (3 Bft) 100,00 %
13.11.2019 17:34 7,0 C 6,1 C 5,6 C 94 % 1002,2 hPa 0,0 l/m 0 min 0 min 0 W/m 16,1 km/h (3 Bft) 100,00 %
13.11.2019 17:36 6,9 C 6,1 C 5,6 C 94 % 1002,3 hPa 0,0 l/m 0 min 0 min 0 W/m 12,9 km/h (3 Bft) 100,00 %
13.11.2019 17:38 6,9 C 6,1 C 5,6 C 94 % 1002,3 hPa 0,0 l/m 0 min 0 min 0 W/m 16,1 km/h (3 Bft) 93,62 %
13.11.2019 17:40 6,9 C 6,1 C 5,6 C 94 % 1002,3 hPa 0,0 l/m 0 min 0 min 0 W/m 16,1 km/h (3 Bft) 100,00 %
13.11.2019 17:42 6,9 C 6,1 C 5,6 C 94 % 1002,3 hPa 0,0 l/m 0 min 0 min 0 W/m 16,1 km/h (3 Bft) 95,74 %
13.11.2019 17:44 6,9 C 6,1 C 5,6 C 94 % 1002,3 hPa 0,0 l/m 0 min 0 min 0 W/m 19,3 km/h (3 Bft) 97,83 %
13.11.2019 17:46 6,9 C 6,1 C 5,6 C 94 % 1002,3 hPa 0,0 l/m 0 min 0 min 0 W/m 6,4 km/h (2 Bft) 97,87 %
13.11.2019 17:48 6,9 C 6,1 C 5,6 C 94 % 1002,4 hPa 0,0 l/m 0 min 0 min 0 W/m 19,3 km/h (3 Bft) 97,87 %
13.11.2019 17:50 6,9 C 6,1 C 5,6 C 94 % 1002,4 hPa 0,0 l/m 0 min 0 min 0 W/m 6,4 km/h (2 Bft) 100,00 %
13.11.2019 17:52 6,9 C 6,1 C 5,6 C 94 % 1002,5 hPa 0,0 l/m 0 min 0 min 0 W/m 9,7 km/h (2 Bft) 100,00 %
13.11.2019 17:54 6,9 C 6,1 C 5,6 C 94 % 1002,5 hPa 0,0 l/m 0 min 0 min 0 W/m 3,2 km/h (1 Bft) 95,74 %
13.11.2019 17:56 6,9 C 6,1 C 5,6 C 94 % 1002,5 hPa 0,0 l/m 0 min 0 min 0 W/m 6,4 km/h (2 Bft) 93,48 %
13.11.2019 17:58 6,9 C 6,1 C 5,6 C 94 % 1002,5 hPa 0,0 l/m 0 min 0 min 0 W/m 6,4 km/h (2 Bft) 95,74 %
13.11.2019 18:00 6,9 C 6,1 C 5,6 C 94 % 1002,6 hPa 0,0 l/m 0 min 0 min 0 W/m 12,9 km/h (3 Bft) 95,74 %
13.11.2019 18:02 6,8 C 6,1 C 5,6 C 94 % 1002,5 hPa 0,0 l/m 0 min 0 min 0 W/m 3,2 km/h (1 Bft) 95,74 %
13.11.2019 18:04 6,8 C 5,6 C 5,6 C 94 % 1002,5 hPa 0,0 l/m 0 min 0 min 0 W/m 3,2 km/h (1 Bft) 93,62 %
13.11.2019 18:08 6,8 C 5,6 C 5,6 C 93 % 1002,5 hPa 0,0 l/m 0 min 0 min 0 W/m 6,4 km/h (2 Bft) 95,70 %
13.11.2019 18:10 6,7 C 5,6 C 5,0 C 93 % 1002,6 hPa 0,0 l/m 0 min 0 min 0 W/m 3,2 km/h (1 Bft) 93,62 %
13.11.2019 18:12 6,7 C 5,6 C 5,0 C 93 % 1002,6 hPa 0,0 l/m 0 min 0 min 0 W/m 3,2 km/h (1 Bft) 95,74 %
13.11.2019 18:14 6,7 C 5,6 C 5,0 C 93 % 1002,5 hPa 0,0 l/m 0 min 0 min 0 W/m 3,2 km/h (1 Bft) 95,74 %
13.11.2019 18:16 6,7 C 5,6 C 5,0 C 93 % 1002,5 hPa 0,0 l/m 0 min 0 min 0 W/m 0,0 km/h (0 Bft) 95,74 %
13.11.2019 18:18 6,7 C 5,6 C 5,0 C 93 % 1002,5 hPa 0,0 l/m 0 min 0 min 0 W/m 0,0 km/h (0 Bft) 95,74 %
13.11.2019 18:20 6,7 C 5,6 C 5,0 C 93 % 1002,5 hPa 0,0 l/m 0 min 0 min 0 W/m 0,0 km/h (0 Bft) 93,48 %
13.11.2019 18:22 6,6 C 5,6 C 5,0 C 93 % 1002,4 hPa 0,0 l/m 0 min 0 min 0 W/m 0,0 km/h (0 Bft) 95,74 %
13.11.2019 18:24 6,6 C 5,6 C 5,0 C 93 % 1002,5 hPa 0,0 l/m 0 min 0 min 0 W/m 0,0 km/h (0 Bft) 95,74 %
13.11.2019 18:26 6,6 C 5,6 C 5,0 C 93 % 1002,5 hPa 0,0 l/m 0 min 0 min 0 W/m 0,0 km/h (0 Bft) 95,74 %
13.11.2019 18:28 6,6 C 5,6 C 5,0 C 93 % 1002,5 hPa 0,0 l/m 0 min 0 min 0 W/m 0,0 km/h (0 Bft) 93,62 %
13.11.2019 18:30 6,6 C 5,6 C 5,0 C 93 % 1002,5 hPa 0,0 l/m 0 min 0 min 0 W/m 0,0 km/h (0 Bft) 95,65 %
13.11.2019 18:32 6,5 C 5,0 C 5,0 C 93 % 1002,5 hPa 0,0 l/m 0 min 0 min 0 W/m 0,0 km/h (0 Bft) 95,74 %
13.11.2019 18:34 6,5 C 5,0 C 5,0 C 93 % 1002,6 hPa 0,0 l/m 0 min 0 min 0 W/m 0,0 km/h (0 Bft) 95,74 %
13.11.2019 18:36 6,5 C 5,0 C 4,4 C 93 % 1002,5 hPa 0,0 l/m 0 min 0 min 0 W/m 0,0 km/h (0 Bft) 95,74 %
13.11.2019 18:38 6,5 C 5,0 C 4,4 C 93 % 1002,6 hPa 0,0 l/m 0 min 0 min 0 W/m 0,0 km/h (0 Bft) 95,74 %
13.11.2019 18:40 6,5 C 5,0 C 4,4 C 93 % 1002,5 hPa 0,0 l/m 0 min 0 min 0 W/m 0,0 km/h (0 Bft) 93,62 %
13.11.2019 18:42 6,5 C 5,0 C 4,4 C 93 % 1002,5 hPa 0,0 l/m 0 min 0 min 0 W/m 0,0 km/h (0 Bft) 95,65 %
13.11.2019 18:44 6,4 C 5,0 C 4,4 C 93 % 1002,6 hPa 0,0 l/m 0 min 0 min 0 W/m 0,0 km/h (0 Bft) 95,74 %
13.11.2019 18:46 6,4 C 5,0 C 4,4 C 93 % 1002,6 hPa 0,0 l/m 0 min 0 min 0 W/m 0,0 km/h (0 Bft) 97,87 %
13.11.2019 18:48 6,4 C 5,0 C 4,4 C 93 % 1002,6 hPa 0,0 l/m 0 min 0 min 0 W/m 0,0 km/h (0 Bft) 97,87 %
13.11.2019 18:50 6,4 C 5,0 C 4,4 C 92 % 1002,7 hPa 0,0 l/m 0 min 0 min 0 W/m 0,0 km/h (0 Bft) 97,87 %
13.11.2019 18:52 6,3 C 5,0 C 4,4 C 92 % 1002,6 hPa 0,0 l/m 0 min 0 min 0 W/m 6,4 km/h (2 Bft) 95,74 %
13.11.2019 18:54 6,3 C 5,6 C 4,4 C 92 % 1002,6 hPa 0,0 l/m 0 min 0 min 0 W/m 3,2 km/h (1 Bft) 100,00 %
13.11.2019 18:56 6,3 C 5,6 C 5,0 C 92 % 1002,7 hPa 0,0 l/m 0 min 0 min 0 W/m 6,4 km/h (2 Bft) 97,87 %
13.11.2019 18:58 6,3 C 5,6 C 5,0 C 92 % 1002,7 hPa 0,0 l/m 0 min 0 min 0 W/m 6,4 km/h (2 Bft) 100,00 %
13.11.2019 19:00 6,3 C 5,6 C 5,0 C 92 % 1002,7 hPa 0,0 l/m 0 min 0 min 0 W/m 6,4 km/h (2 Bft) 97,73 %
13.11.2019 19:02 6,2 C 5,6 C 5,0 C 93 % 1002,7 hPa 0,0 l/m 0 min 0 min 0 W/m 6,4 km/h (2 Bft) 97,87 %
13.11.2019 19:04 6,2 C 5,6 C 5,0 C 93 % 1002,6 hPa 0,0 l/m 0 min 0 min 0 W/m 3,2 km/h (1 Bft) 95,74 %
13.11.2019 19:06 6,2 C 5,6 C 5,0 C 93 % 1002,7 hPa 0,0 l/m 0 min 0 min 0 W/m 6,4 km/h (2 Bft) 95,74 %
13.11.2019 19:08 6,2 C 5,6 C 5,0 C 93 % 1002,7 hPa 0,0 l/m 0 min 0 min 0 W/m 3,2 km/h (1 Bft) 95,74 %
13.11.2019 19:10 6,2 C 5,6 C 5,0 C 93 % 1002,6 hPa 0,0 l/m 0 min 0 min 0 W/m 3,2 km/h (1 Bft) 97,92 %
13.11.2019 19:12 6,2 C 5,6 C 5,0 C 93 % 1002,6 hPa 0,0 l/m 0 min 0 min 0 W/m 3,2 km/h (1 Bft) 97,83 %
13.11.2019 19:14 6,2 C 5,6 C 5,0 C 93 % 1002,6 hPa 0,0 l/m 0 min 0 min 0 W/m 6,4 km/h (2 Bft) 97,87 %
13.11.2019 19:16 6,2 C 5,6 C 5,0 C 93 % 1002,6 hPa 0,0 l/m 0 min 0 min 0 W/m 6,4 km/h (2 Bft) 95,74 %
13.11.2019 19:18 6,2 C 5,6 C 5,0 C 93 % 1002,6 hPa 0,0 l/m 0 min 0 min 0 W/m 3,2 km/h (1 Bft) 97,87 %
13.11.2019 19:20 6,2 C 5,6 C 5,0 C 93 % 1002,6 hPa 0,0 l/m 0 min 0 min 0 W/m 3,2 km/h (1 Bft) 95,74 %
13.11.2019 19:22 6,2 C 5,6 C 5,0 C 93 % 1002,6 hPa 0,0 l/m 0 min 0 min 0 W/m 6,4 km/h (2 Bft) 95,74 %
13.11.2019 19:24 6,2 C 5,6 C 5,0 C 93 % 1002,6 hPa 0,0 l/m 0 min 0 min 0 W/m 6,4 km/h (2 Bft) 95,65 %
13.11.2019 19:26 6,2 C 5,6 C 5,0 C 93 % 1002,5 hPa 0,0 l/m 0 min 0 min 0 W/m 3,2 km/h (1 Bft) 97,87 %
13.11.2019 19:28 6,1 C 5,6 C 5,0 C 93 % 1002,6 hPa 0,0 l/m 0 min 0 min 0 W/m 6,4 km/h (2 Bft) 97,87 %
13.11.2019 19:30 6,1 C 5,6 C 5,0 C 93 % 1002,5 hPa 0,0 l/m 0 min 0 min 0 W/m 3,2 km/h (1 Bft) 97,87 %
13.11.2019 19:32 6,1 C 5,6 C 5,0 C 93 % 1002,5 hPa 0,0 l/m 0 min 0 min 0 W/m 3,2 km/h (1 Bft) 95,74 %
13.11.2019 19:34 6,1 C 5,6 C 5,0 C 93 % 1002,6 hPa 0,0 l/m 0 min 0 min 0 W/m 6,4 km/h (2 Bft) 97,87 %
13.11.2019 19:36 6,1 C 5,6 C 5,0 C 93 % 1002,6 hPa 0,0 l/m 0 min 0 min 0 W/m 3,2 km/h (1 Bft) 97,83 %
13.11.2019 19:38 6,1 C 5,6 C 5,0 C 93 % 1002,6 hPa 0,0 l/m 0 min 0 min 0 W/m 6,4 km/h (2 Bft) 91,49 %
13.11.2019 19:40 6,1 C 5,6 C 5,0 C 93 % 1002,5 hPa 0,0 l/m 0 min 0 min 0 W/m 6,4 km/h (2 Bft) 97,87 %
13.11.2019 19:42 6,1 C 5,6 C 5,0 C 93 % 1002,5 hPa 0,0 l/m 0 min 0 min 0 W/m 6,4 km/h (2 Bft) 95,74 %
13.11.2019 19:44 6,1 C 5,6 C 5,0 C 93 % 1002,5 hPa 0,0 l/m 0 min 0 min 0 W/m 6,4 km/h (2 Bft) 97,87 %
13.11.2019 19:46 6,1 C 5,6 C 5,0 C 93 % 1002,4 hPa 0,0 l/m 0 min 0 min 0 W/m 6,4 km/h (2 Bft) 97,87 %
13.11.2019 19:48 6,1 C 5,6 C 5,0 C 93 % 1002,4 hPa 0,0 l/m 0 min 0 min 0 W/m 9,7 km/h (2 Bft) 97,83 %
13.11.2019 19:50 6,1 C 5,6 C 5,0 C 93 % 1002,5 hPa 0,0 l/m 0 min 0 min 0 W/m 6,4 km/h (2 Bft) 100,00 %
13.11.2019 19:52 6,1 C 5,6 C 5,0 C 93 % 1002,4 hPa 0,0 l/m 0 min 0 min 0 W/m 6,4 km/h (2 Bft) 97,87 %
13.11.2019 19:53 6,1 C 5,6 C 5,0 C 93 % 1002,4 hPa 0,0 l/m 0 min 0 min 0 W/m 6,4 km/h (2 Bft) 97,87 %
13.11.2019 19:56 6,1 C 5,6 C 5,0 C 93 % 1002,4 hPa 0,0 l/m 0 min 0 min 0 W/m 6,4 km/h (2 Bft) 95,74 %
13.11.2019 19:58 6,1 C 5,6 C 5,0 C 93 % 1002,4 hPa 0,0 l/m 0 min 0 min 0 W/m 3,2 km/h (1 Bft) 100,00 %
13.11.2019 20:00 6,1 C 5,6 C 5,0 C 93 % 1002,4 hPa 0,0 l/m 0 min 0 min 0 W/m 9,7 km/h (2 Bft) 100,00 %
13.11.2019 20:02 6,1 C 5,6 C 5,0 C 93 % 1002,4 hPa 0,0 l/m 0 min 0 min 0 W/m 9,7 km/h (2 Bft) 100,00 %
13.11.2019 20:05 6,1 C 5,6 C 5,0 C 93 % 1002,4 hPa 0,0 l/m 0 min 0 min 0 W/m 6,4 km/h (2 Bft) 100,00 %
13.11.2019 20:06 6,1 C 5,6 C 5,0 C 93 % 1002,4 hPa 0,0 l/m 0 min 0 min 0 W/m 6,4 km/h (2 Bft) 100,00 %
13.11.2019 20:08 6,1 C 5,6 C 5,0 C 93 % 1002,4 hPa 0,0 l/m 0 min 0 min 0 W/m 6,4 km/h (2 Bft) 95,74 %
13.11.2019 20:10 6,1 C 5,6 C 5,0 C 93 % 1002,4 hPa 0,0 l/m 0 min 0 min 0 W/m 3,2 km/h (1 Bft) 97,87 %
13.11.2019 20:12 6,1 C 5,6 C 5,0 C 93 % 1002,4 hPa 0,0 l/m 0 min 0 min 0 W/m 9,7 km/h (2 Bft) 97,83 %
13.11.2019 20:14 6,1 C 5,6 C 5,0 C 93 % 1002,4 hPa 0,0 l/m 0 min 0 min 0 W/m 6,4 km/h (2 Bft) 97,87 %
13.11.2019 20:15 6,1 C 5,6 C 5,0 C 93 % 1002,4 hPa 0,0 l/m 0 min 0 min 0 W/m 9,7 km/h (2 Bft) 100,00 %
13.11.2019 20:26 6,0 C 5,0 C 4,4 C 93 % 1002,3 hPa 0,0 l/m 0 min 0 min 0 W/m 9,7 km/h (2 Bft) 100,00 %
13.11.2019 20:28 6,0 C 5,0 C 4,4 C 93 % 1002,3 hPa 0,0 l/m 0 min 0 min 0 W/m 9,7 km/h (2 Bft) 95,65 %
13.11.2019 20:30 5,9 C 5,0 C 4,4 C 93 % 1002,3 hPa 0,0 l/m 0 min 0 min 0 W/m 6,4 km/h (2 Bft) 97,87 %
13.11.2019 20:32 6,0 C 5,0 C 4,4 C 93 % 1002,3 hPa 0,0 l/m 0 min 0 min 0 W/m 9,7 km/h (2 Bft) 95,83 %
13.11.2019 20:34 5,9 C 5,0 C 5,0 C 93 % 1002,3 hPa 0,0 l/m 0 min 0 min 0 W/m 9,7 km/h (2 Bft) 97,87 %
13.11.2019 20:36 5,9 C 5,0 C 5,0 C 93 % 1002,3 hPa 0,0 l/m 0 min 0 min 0 W/m 9,7 km/h (2 Bft) 97,87 %
13.11.2019 20:38 5,9 C 5,0 C 4,4 C 93 % 1002,3 hPa 0,0 l/m 0 min 0 min 0 W/m 6,4 km/h (2 Bft) 95,65 %
13.11.2019 20:40 5,9 C 5,0 C 4,4 C 93 % 1002,3 hPa 0,0 l/m 0 min 0 min 0 W/m 6,4 km/h (2 Bft) 95,74 %
13.11.2019 20:42 5,9 C 5,0 C 4,4 C 93 % 1002,3 hPa 0,0 l/m 0 min 0 min 0 W/m 9,7 km/h (2 Bft) 95,74 %
13.11.2019 20:44 5,9 C 5,0 C 4,4 C 93 % 1002,3 hPa 0,0 l/m 0 min 0 min 0 W/m 12,9 km/h (3 Bft) 97,87 %
13.11.2019 20:46 5,9 C 5,0 C 4,4 C 93 % 1002,3 hPa 0,0 l/m 0 min 0 min 0 W/m 12,9 km/h (3 Bft) 95,74 %
13.11.2019 20:48 5,9 C 5,0 C 4,4 C 93 % 1002,4 hPa 0,0 l/m 0 min 0 min 0 W/m 6,4 km/h (2 Bft) 91,49 %
13.11.2019 20:50 5,9 C 5,0 C 4,4 C 93 % 1002,3 hPa 0,0 l/m 0 min 0 min 0 W/m 6,4 km/h (2 Bft) 97,87 %
13.11.2019 20:52 5,9 C 5,0 C 4,4 C 93 % 1002,3 hPa 0,0 l/m 0 min 0 min 0 W/m 12,9 km/h (3 Bft) 93,48 %
13.11.2019 20:54 5,8 C 5,0 C 4,4 C 93 % 1002,3 hPa 0,0 l/m 0 min 0 min 0 W/m 12,9 km/h (3 Bft) 97,87 %
13.11.2019 20:56 5,8 C 5,0 C 4,4 C 93 % 1002,3 hPa 0,0 l/m 0 min 0 min 0 W/m 12,9 km/h (3 Bft) 97,87 %
13.11.2019 20:58 5,8 C 4,4 C 4,4 C 93 % 1002,3 hPa 0,0 l/m 0 min 0 min 0 W/m 12,9 km/h (3 Bft) 97,87 %
13.11.2019 21:00 5,8 C 4,4 C 4,4 C 93 % 1002,2 hPa 0,0 l/m 0 min 0 min 0 W/m 12,9 km/h (3 Bft) 97,87 %
13.11.2019 21:02 5,8 C 4,4 C 3,9 C 93 % 1002,3 hPa 0,0 l/m 0 min 0 min 0 W/m 16,1 km/h (3 Bft) 97,83 %
13.11.2019 21:04 5,7 C 4,4 C 4,4 C 93 % 1002,3 hPa 0,0 l/m 0 min 0 min 0 W/m 12,9 km/h (3 Bft) 97,87 %
13.11.2019 21:06 5,7 C 4,4 C 4,4 C 93 % 1002,3 hPa 0,0 l/m 0 min 0 min 0 W/m 12,9 km/h (3 Bft) 97,87 %
13.11.2019 21:08 5,7 C 4,4 C 4,4 C 93 % 1002,3 hPa 0,0 l/m 0 min 0 min 0 W/m 12,9 km/h (3 Bft) 95,74 %
13.11.2019 21:10 5,7 C 4,4 C 4,4 C 93 % 1002,3 hPa 0,0 l/m 0 min 0 min 0 W/m 19,3 km/h (3 Bft) 97,87 %
13.11.2019 21:12 5,7 C 4,4 C 4,4 C 92 % 1002,3 hPa 0,0 l/m 0 min 0 min 0 W/m 16,1 km/h (3 Bft) 97,87 %
13.11.2019 21:14 5,6 C 4,4 C 4,4 C 92 % 1002,2 hPa 0,0 l/m 0 min 0 min 0 W/m 12,9 km/h (3 Bft) 97,83 %
13.11.2019 21:16 5,6 C 4,4 C 4,4 C 92 % 1002,3 hPa 0,0 l/m 0 min 0 min 0 W/m 12,9 km/h (3 Bft) 97,87 %
13.11.2019 21:18 5,6 C 4,4 C 4,4 C 92 % 1002,2 hPa 0,0 l/m 0 min 0 min 0 W/m 19,3 km/h (3 Bft) 100,00 %
13.11.2019 21:20 5,5 C 4,4 C 4,4 C 92 % 1002,2 hPa 0,0 l/m 0 min 0 min 0 W/m 19,3 km/h (3 Bft) 100,00 %
13.11.2019 21:22 5,5 C 4,4 C 4,4 C 92 % 1002,3 hPa 0,0 l/m 0 min 0 min 0 W/m 12,9 km/h (3 Bft) 100,00 %
13.11.2019 21:24 5,4 C 4,4 C 4,4 C 92 % 1002,2 hPa 0,0 l/m 0 min 0 min 0 W/m 12,9 km/h (3 Bft) 100,00 %
13.11.2019 21:26 5,4 C 4,4 C 4,4 C 92 % 1002,2 hPa 0,0 l/m 0 min 0 min 0 W/m 19,3 km/h (3 Bft) 100,00 %
13.11.2019 21:28 5,4 C 4,4 C 4,4 C 92 % 1002,3 hPa 0,0 l/m 0 min 0 min 0 W/m 16,1 km/h (3 Bft) 100,00 %
13.11.2019 21:30 5,4 C 4,4 C 4,4 C 92 % 1002,2 hPa 0,0 l/m 0 min 0 min 0 W/m 16,1 km/h (3 Bft) 100,00 %
13.11.2019 21:32 5,4 C 4,4 C 4,4 C 92 % 1002,3 hPa 0,0 l/m 0 min 0 min 0 W/m 16,1 km/h (3 Bft) 97,87 %
13.11.2019 21:34 5,4 C 4,4 C 4,4 C 92 % 1002,3 hPa 0,0 l/m 0 min 0 min 0 W/m 19,3 km/h (3 Bft) 95,74 %
13.11.2019 21:36 5,3 C 4,4 C 4,4 C 92 % 1002,3 hPa 0,0 l/m 0 min 0 min 0 W/m 19,3 km/h (3 Bft) 95,74 %
13.11.2019 21:38 5,3 C 4,4 C 4,4 C 92 % 1002,3 hPa 0,0 l/m 0 min 0 min 0 W/m 19,3 km/h (3 Bft) 95,65 %
13.11.2019 21:40 5,3 C 4,4 C 4,4 C 92 % 1002,3 hPa 0,0 l/m 0 min 0 min 0 W/m 12,9 km/h (3 Bft) 93,62 %
13.11.2019 21:42 5,3 C 4,4 C 4,4 C 92 % 1002,3 hPa 0,0 l/m 0 min 0 min 0 W/m 12,9 km/h (3 Bft) 57,78 %
13.11.2019 21:44 5,3 C 4,4 C 4,4 C 92 % 1002,2 hPa 0,0 l/m 0 min 0 min 0 W/m 16,1 km/h (3 Bft) 95,74 %
13.11.2019 21:46 5,3 C 4,4 C 4,4 C 93 % 1002,2 hPa 0,0 l/m 0 min 0 min 0 W/m 16,1 km/h (3 Bft) 95,74 %
13.11.2019 21:48 5,3 C 4,4 C 4,4 C 93 % 1002,2 hPa 0,0 l/m 0 min 0 min 0 W/m 16,1 km/h (3 Bft) 95,74 %
13.11.2019 21:50 5,3 C 4,4 C 4,4 C 93 % 1002,2 hPa 0,0 l/m 0 min 0 min 0 W/m 19,3 km/h (3 Bft) 93,48 %
13.11.2019 21:52 5,3 C 4,4 C 4,4 C 93 % 1002,2 hPa 0,0 l/m 0 min 0 min 0 W/m 19,3 km/h (3 Bft) 95,74 %
13.11.2019 21:54 5,3 C 4,4 C 4,4 C 93 % 1002,2 hPa 0,0 l/m 0 min 0 min 0 W/m 19,3 km/h (3 Bft) 93,62 %
13.11.2019 21:56 5,3 C 4,4 C 4,4 C 93 % 1002,2 hPa 0,0 l/m 0 min 0 min 0 W/m 16,1 km/h (3 Bft) 93,62 %
13.11.2019 21:58 5,3 C 4,4 C 4,4 C 92 % 1002,1 hPa 0,0 l/m 0 min 0 min 0 W/m 19,3 km/h (3 Bft) 95,74 %
13.11.2019 22:00 5,3 C 4,4 C 4,4 C 92 % 1002,1 hPa 0,0 l/m 0 min 0 min 0 W/m 19,3 km/h (3 Bft) 93,62 %
13.11.2019 22:02 5,3 C 4,4 C 4,4 C 92 % 1002,1 hPa 0,0 l/m 0 min 0 min 0 W/m 22,5 km/h (4 Bft) 93,48 %
13.11.2019 22:04 5,3 C 4,4 C 3,9 C 92 % 1002,1 hPa 0,0 l/m 0 min 0 min 0 W/m 19,3 km/h (3 Bft) 95,74 %
13.11.2019 22:06 5,3 C 4,4 C 3,9 C 92 % 1002,1 hPa 0,0 l/m 0 min 0 min 0 W/m 22,5 km/h (4 Bft) 95,74 %
13.11.2019 22:08 5,3 C 4,4 C 3,9 C 92 % 1002,1 hPa 0,0 l/m 0 min 0 min 0 W/m 16,1 km/h (3 Bft) 95,74 %
13.11.2019 22:10 5,3 C 4,4 C 3,9 C 92 % 1002,0 hPa 0,0 l/m 0 min 0 min 0 W/m 22,5 km/h (4 Bft) 97,87 %
13.11.2019 22:12 5,3 C 4,4 C 3,9 C 92 % 1002,0 hPa 0,0 l/m 0 min 0 min 0 W/m 16,1 km/h (3 Bft) 91,30 %
13.11.2019 22:14 5,3 C 4,4 C 3,9 C 92 % 1002,0 hPa 0,0 l/m 0 min 0 min 0 W/m 16,1 km/h (3 Bft) 95,74 %
13.11.2019 22:16 5,2 C 4,4 C 3,9 C 92 % 1002,0 hPa 0,0 l/m 0 min 0 min 0 W/m 12,9 km/h (3 Bft) 95,74 %
13.11.2019 22:18 5,2 C 4,4 C 3,9 C 92 % 1002,0 hPa 0,0 l/m 0 min 0 min 0 W/m 16,1 km/h (3 Bft) 91,49 %
13.11.2019 22:20 5,2 C 4,4 C 3,9 C 92 % 1001,9 hPa 0,0 l/m 0 min 0 min 0 W/m 12,9 km/h (3 Bft) 95,74 %
13.11.2019 22:22 5,2 C 4,4 C 3,9 C 92 % 1001,9 hPa 0,0 l/m 0 min 0 min 0 W/m 16,1 km/h (3 Bft) 95,74 %
13.11.2019 22:24 5,2 C 4,4 C 3,9 C 93 % 1001,9 hPa 0,0 l/m 0 min 0 min 0 W/m 16,1 km/h (3 Bft) 95,65 %
13.11.2019 22:26 5,2 C 4,4 C 3,9 C 93 % 1002,1 hPa 0,0 l/m 0 min 0 min 0 W/m 12,9 km/h (3 Bft) 95,74 %
13.11.2019 22:28 5,2 C 4,4 C 3,9 C 93 % 1002,0 hPa 0,0 l/m 0 min 0 min 0 W/m 16,1 km/h (3 Bft) 95,74 %
13.11.2019 22:30 5,2 C 4,4 C 3,9 C 93 % 1002,0 hPa 0,0 l/m 0 min 0 min 0 W/m 12,9 km/h (3 Bft) 95,74 %
13.11.2019 22:32 5,2 C 4,4 C 3,9 C 93 % 1002,0 hPa 0,0 l/m 0 min 0 min 0 W/m 16,1 km/h (3 Bft) 100,00 %
13.11.2019 22:34 5,2 C 4,4 C 3,9 C 93 % 1002,0 hPa 0,0 l/m 0 min 0 min 0 W/m 19,3 km/h (3 Bft) 100,00 %
13.11.2019 22:36 5,2 C 4,4 C 3,9 C 93 % 1002,0 hPa 0,0 l/m 0 min 0 min 0 W/m 12,9 km/h (3 Bft) 100,00 %
13.11.2019 22:38 5,2 C 4,4 C 3,9 C 93 % 1002,0 hPa 0,0 l/m 0 min 0 min 0 W/m 6,4 km/h (2 Bft) 97,83 %
13.11.2019 22:40 5,2 C 4,4 C 3,9 C 93 % 1002,0 hPa 0,0 l/m 0 min 0 min 0 W/m 12,9 km/h (3 Bft) 97,87 %
13.11.2019 22:42 5,2 C 4,4 C 3,9 C 93 % 1002,0 hPa 0,0 l/m 0 min 0 min 0 W/m 12,9 km/h (3 Bft) 100,00 %
13.11.2019 22:44 5,2 C 4,4 C 3,9 C 93 % 1002,1 hPa 0,0 l/m 0 min 0 min 0 W/m 6,4 km/h (2 Bft) 100,00 %
13.11.2019 22:46 5,2 C 4,4 C 3,9 C 93 % 1002,1 hPa 0,0 l/m 0 min 0 min 0 W/m 6,4 km/h (2 Bft) 97,83 %
13.11.2019 22:48 5,2 C 4,4 C 3,9 C 93 % 1002,0 hPa 0,0 l/m 0 min 0 min 0 W/m 6,4 km/h (2 Bft) 97,87 %
13.11.2019 22:50 5,2 C 4,4 C 3,9 C 93 % 1002,0 hPa 0,0 l/m 0 min 0 min 0 W/m 12,9 km/h (3 Bft) 95,74 %
13.11.2019 22:52 5,2 C 4,4 C 3,9 C 93 % 1002,0 hPa 0,0 l/m 0 min 0 min 0 W/m 16,1 km/h (3 Bft) 97,87 %
13.11.2019 22:54 5,2 C 4,4 C 3,9 C 93 % 1001,9 hPa 0,0 l/m 0 min 0 min 0 W/m 12,9 km/h (3 Bft) 97,87 %
13.11.2019 22:56 5,2 C 4,4 C 3,9 C 93 % 1001,9 hPa 0,0 l/m 0 min 0 min 0 W/m 12,9 km/h (3 Bft) 100,00 %
13.11.2019 22:58 5,1 C 4,4 C 3,9 C 93 % 1001,9 hPa 0,0 l/m 0 min 0 min 0 W/m 6,4 km/h (2 Bft) 97,87 %
13.11.2019 23:00 5,2 C 4,4 C 3,9 C 93 % 1001,9 hPa 0,0 l/m 0 min 0 min 0 W/m 16,1 km/h (3 Bft) 97,87 %
13.11.2019 23:02 5,1 C 4,4 C 3,9 C 93 % 1001,8 hPa 0,0 l/m 0 min 0 min 0 W/m 16,1 km/h (3 Bft) 97,83 %
13.11.2019 23:04 5,1 C 4,4 C 3,9 C 93 % 1001,8 hPa 0,0 l/m 0 min 0 min 0 W/m 12,9 km/h (3 Bft) 95,74 %
13.11.2019 23:06 5,1 C 4,4 C 3,9 C 93 % 1001,8 hPa 0,0 l/m 0 min 0 min 0 W/m 16,1 km/h (3 Bft) 95,74 %
13.11.2019 23:08 5,1 C 4,4 C 3,9 C 93 % 1001,7 hPa 0,0 l/m 0 min 0 min 0 W/m 6,4 km/h (2 Bft) 97,87 %
13.11.2019 23:10 5,1 C 4,4 C 3,9 C 93 % 1001,7 hPa 0,0 l/m 0 min 0 min 0 W/m 12,9 km/h (3 Bft) 97,83 %
13.11.2019 23:12 5,1 C 4,4 C 3,9 C 93 % 1001,7 hPa 0,0 l/m 0 min 0 min 0 W/m 19,3 km/h (3 Bft) 97,87 %
13.11.2019 23:14 5,1 C 4,4 C 3,9 C 93 % 1001,7 hPa 0,0 l/m 0 min 0 min 0 W/m 12,9 km/h (3 Bft) 97,87 %
13.11.2019 23:16 5,1 C 4,4 C 3,9 C 93 % 1001,7 hPa 0,0 l/m 0 min 0 min 0 W/m 16,1 km/h (3 Bft) 97,87 %
13.11.2019 23:18 5,1 C 4,4 C 3,9 C 93 % 1001,6 hPa 0,0 l/m 0 min 0 min 0 W/m 12,9 km/h (3 Bft) 95,74 %
13.11.2019 23:20 5,1 C 4,4 C 3,9 C 93 % 1001,7 hPa 0,0 l/m 0 min 0 min 0 W/m 12,9 km/h (3 Bft) 97,87 %
13.11.2019 23:22 5,1 C 4,4 C 3,9 C 93 % 1001,6 hPa 0,0 l/m 0 min 0 min 0 W/m 12,9 km/h (3 Bft) 97,83 %
13.11.2019 23:24 5,1 C 4,4 C 3,9 C 93 % 1001,7 hPa 0,0 l/m 0 min 0 min 0 W/m 12,9 km/h (3 Bft) 97,87 %
13.11.2019 23:26 5,1 C 4,4 C 3,9 C 93 % 1001,6 hPa 0,0 l/m 0 min 0 min 0 W/m 16,1 km/h (3 Bft) 95,74 %
13.11.2019 23:28 5,1 C 4,4 C 3,9 C 93 % 1001,5 hPa 0,0 l/m 0 min 0 min 0 W/m 12,9 km/h (3 Bft) 97,87 %
13.11.2019 23:30 5,1 C 4,4 C 3,9 C 93 % 1001,6 hPa 0,0 l/m 0 min 0 min 0 W/m 12,9 km/h (3 Bft) 97,87 %
13.11.2019 23:32 5,1 C 4,4 C 3,9 C 93 % 1001,6 hPa 0,0 l/m 0 min 0 min 0 W/m 12,9 km/h (3 Bft) 97,87 %
13.11.2019 23:34 5,1 C 4,4 C 3,9 C 93 % 1001,6 hPa 0,0 l/m 0 min 0 min 0 W/m 16,1 km/h (3 Bft) 95,65 %
13.11.2019 23:36 5,1 C 4,4 C 3,9 C 93 % 1001,6 hPa 0,0 l/m 0 min 0 min 0 W/m 12,9 km/h (3 Bft) 97,92 %
13.11.2019 23:38 5,1 C 4,4 C 3,9 C 93 % 1001,6 hPa 0,0 l/m 0 min 2 min 0 W/m 12,9 km/h (3 Bft) 95,65 %
13.11.2019 23:40 5,1 C 4,4 C 3,9 C 93 % 1001,6 hPa 0,0 l/m 0 min 0 min 0 W/m 6,4 km/h (2 Bft) 97,87 %
13.11.2019 23:42 5,1 C 4,4 C 3,9 C 93 % 1001,6 hPa 0,0 l/m 0 min 0 min 0 W/m 16,1 km/h (3 Bft) 97,87 %
13.11.2019 23:44 5,2 C 4,4 C 4,4 C 93 % 1001,6 hPa 0,0 l/m 0 min 0 min 0 W/m 16,1 km/h (3 Bft) 97,83 %
13.11.2019 23:46 5,2 C 4,4 C 3,9 C 93 % 1001,6 hPa 0,0 l/m 0 min 0 min 0 W/m 16,1 km/h (3 Bft) 97,87 %
13.11.2019 23:48 5,2 C 4,4 C 4,4 C 93 % 1001,5 hPa 0,0 l/m 0 min 0 min 0 W/m 16,1 km/h (3 Bft) 100,00 %
13.11.2019 23:50 5,2 C 4,4 C 3,9 C 93 % 1001,5 hPa 0,0 l/m 0 min 0 min 0 W/m 12,9 km/h (3 Bft) 100,00 %
13.11.2019 23:52 5,2 C 4,4 C 4,4 C 93 % 1001,6 hPa 0,0 l/m 0 min 0 min 0 W/m 16,1 km/h (3 Bft) 100,00 %
13.11.2019 23:54 5,2 C 4,4 C 4,4 C 93 % 1001,5 hPa 0,0 l/m 0 min 0 min 0 W/m 16,1 km/h (3 Bft) 100,00 %
13.11.2019 23:56 5,2 C 4,4 C 4,4 C 93 % 1001,5 hPa 0,0 l/m 0 min 0 min 0 W/m 16,1 km/h (3 Bft) 100,00 %
13.11.2019 23:58 5,2 C 4,4 C 4,4 C 93 % 1001,5 hPa 0,0 l/m 0 min 0 min 0 W/m 12,9 km/h (3 Bft) 100,00 %
_ Min-Zeit 00:24 00:20 00:00 12:36 04:10 - - - - 18:16 21:42
Minimum _ 1,6 C 0,6 C 0,6 C 91 % 999,4 hPa - - - - 0,0 km/h (0 Bft) 57,78 %
_ Max-Zeit 13:14 12:52 13:10 01:38 18:50 00:00 12:52 02:12 12:52 02:16 00:00
Maximum _ 8,0 C 9,4 C 7,8 C 96 % 1002,7 hPa 0,0 l/m 2 min 2 min 235 W/m 35,4 km/h
O-SO (5 Bft)
100,00 %
Durchschnitt _ 5,4 C 5,0 C 4,4 C 93 % 1001,2 hPa #0,0 l/m #20 min. #34 min. 78 W/m 15,9 km/h (3 Bft) 97,19 %
© 2019 W. Hausmann